Wetterdaten: Samstag, 17.04.2010
Datum Zeit Temp. Innen Temp. Aussen UV X Diff Temp. Feuchte Inne Feuchte Auss Sonnenschein Luftdruck Regen ab 0,1 Wind Sonnenschein Windben
17.04.2010 00:00 16,2 C 6,1 C 0,0 UV-I 0,0 C 45 % 68 % 0 % 1024,8 hPa 0,0 l/m 2,4 km/h (1 Bft) 0 min 0,0 km/h (0 Bft)
17.04.2010 00:02 16,2 C 6,0 C 0,0 UV-I 0,0 C 45 % 68 % 0 % 1024,8 hPa 0,0 l/m 2,8 km/h (1 Bft) 0 min 7,2 km/h (2 Bft)
17.04.2010 00:06 16,1 C 6,0 C 0,0 UV-I 0,0 C 45 % 69 % 0 % 1024,8 hPa 0,0 l/m 3,6 km/h (1 Bft) 0 min 6,0 km/h (2 Bft)
17.04.2010 00:08 16,1 C 6,1 C 0,0 UV-I 0,0 C 45 % 69 % 0 % 1024,8 hPa 0,0 l/m 3,2 km/h (1 Bft) 0 min 0,0 km/h (0 Bft)
17.04.2010 00:10 16,1 C 6,0 C 0,0 UV-I 0,0 C 45 % 69 % 0 % 1024,8 hPa 0,0 l/m 2,4 km/h (1 Bft) 0 min 0,0 km/h (0 Bft)
17.04.2010 00:12 16,1 C 6,0 C 0,0 UV-I 0,0 C 45 % 69 % 0 % 1024,8 hPa 0,0 l/m 1,6 km/h (1 Bft) 0 min 0,0 km/h (0 Bft)
17.04.2010 00:14 16,1 C 5,9 C 0,0 UV-I 0,0 C 45 % 69 % 0 % 1024,8 hPa 0,0 l/m 1,6 km/h (1 Bft) 0 min 0,0 km/h (0 Bft)
17.04.2010 00:16 16,1 C 5,9 C 0,0 UV-I 0,0 C 45 % 69 % 0 % 1024,8 hPa 0,0 l/m 0,8 km/h (0 Bft) 0 min 0,0 km/h (0 Bft)
17.04.2010 00:18 16,1 C 5,9 C 0,0 UV-I 0,0 C 45 % 69 % 0 % 1024,8 hPa 0,0 l/m 0,0 km/h (0 Bft) 0 min 0,0 km/h (0 Bft)
17.04.2010 00:20 16,1 C 5,8 C 0,0 UV-I 0,0 C 45 % 69 % 0 % 1024,8 hPa 0,0 l/m 0,0 km/h (0 Bft) 0 min 0,0 km/h (0 Bft)
17.04.2010 00:22 16,1 C 5,7 C 0,0 UV-I 0,0 C 45 % 70 % 0 % 1024,8 hPa 0,0 l/m 0,0 km/h (0 Bft) 0 min 0,0 km/h (0 Bft)
17.04.2010 00:24 16,1 C 5,6 C 0,0 UV-I 0,0 C 45 % 70 % 0 % 1024,8 hPa 0,0 l/m 0,0 km/h (0 Bft) 0 min 0,0 km/h (0 Bft)
17.04.2010 00:26 15,9 C 5,7 C 0,0 UV-I 0,0 C 45 % 70 % 0 % 1024,8 hPa 0,0 l/m 0,0 km/h (0 Bft) 0 min 0,0 km/h (0 Bft)
17.04.2010 00:28 15,9 C 5,6 C 0,0 UV-I 0,0 C 45 % 71 % 0 % 1024,8 hPa 0,0 l/m 0,0 km/h (0 Bft) 0 min 0,0 km/h (0 Bft)
17.04.2010 00:30 15,9 C 5,5 C 0,0 UV-I 0,0 C 45 % 71 % 0 % 1024,8 hPa 0,0 l/m 0,0 km/h (0 Bft) 0 min 0,0 km/h (0 Bft)
17.04.2010 00:32 15,9 C 5,5 C 0,0 UV-I 0,0 C 45 % 71 % 0 % 1025,1 hPa 0,0 l/m 0,0 km/h (0 Bft) 0 min 0,0 km/h (0 Bft)
17.04.2010 00:34 15,9 C 5,5 C 0,0 UV-I 0,0 C 45 % 71 % 0 % 1025,1 hPa 0,0 l/m 0,0 km/h (0 Bft) 0 min 0,0 km/h (0 Bft)
17.04.2010 00:36 16,0 C 5,4 C 0,0 UV-I 0,0 C 45 % 71 % 0 % 1025,1 hPa 0,0 l/m 0,0 km/h (0 Bft) 0 min 0,0 km/h (0 Bft)
17.04.2010 00:38 16,0 C 5,3 C 0,0 UV-I 0,0 C 45 % 71 % 0 % 1025,1 hPa 0,0 l/m 0,0 km/h (0 Bft) 0 min 0,0 km/h (0 Bft)
17.04.2010 00:40 16,0 C 5,3 C 0,0 UV-I 0,0 C 45 % 71 % 0 % 1025,1 hPa 0,0 l/m 0,0 km/h (0 Bft) 0 min 0,0 km/h (0 Bft)
17.04.2010 00:44 16,0 C 5,3 C 0,0 UV-I 0,0 C 45 % 72 % 0 % 1025,1 hPa 0,0 l/m 0,0 km/h (0 Bft) 0 min 0,0 km/h (0 Bft)
17.04.2010 00:46 16,0 C 5,2 C 0,0 UV-I 0,0 C 45 % 72 % 0 % 1025,1 hPa 0,0 l/m 0,0 km/h (0 Bft) 0 min 0,0 km/h (0 Bft)
17.04.2010 00:48 15,8 C 5,2 C 0,0 UV-I 0,0 C 45 % 72 % 0 % 1025,1 hPa 0,0 l/m 0,0 km/h (0 Bft) 0 min 0,0 km/h (0 Bft)
17.04.2010 00:50 15,8 C 5,2 C 0,0 UV-I 0,0 C 45 % 72 % 0 % 1025,1 hPa 0,0 l/m 0,0 km/h (0 Bft) 0 min 0,0 km/h (0 Bft)
17.04.2010 00:52 15,8 C 5,1 C 0,0 UV-I 0,0 C 45 % 72 % 0 % 1025,2 hPa 0,0 l/m 0,0 km/h (0 Bft) 0 min 0,0 km/h (0 Bft)
17.04.2010 00:54 15,9 C 5,1 C 0,0 UV-I 0,0 C 45 % 72 % 0 % 1025,2 hPa 0,0 l/m 0,0 km/h (0 Bft) 0 min 0,0 km/h (0 Bft)
17.04.2010 00:56 15,9 C 5,1 C 0,0 UV-I 0,0 C 45 % 72 % 0 % 1025,2 hPa 0,0 l/m 0,0 km/h (0 Bft) 0 min 0,0 km/h (0 Bft)
17.04.2010 00:58 15,9 C 5,1 C 0,0 UV-I 0,0 C 45 % 73 % 0 % 1025,2 hPa 0,0 l/m 0,0 km/h (0 Bft) 0 min 0,0 km/h (0 Bft)
17.04.2010 01:00 15,9 C 5,0 C 0,0 UV-I 0,0 C 45 % 73 % 0 % 1025,2 hPa 0,0 l/m 0,0 km/h (0 Bft) 0 min 0,0 km/h (0 Bft)
17.04.2010 01:02 15,9 C 5,1 C 0,0 UV-I 0,0 C 45 % 73 % 0 % 1025,2 hPa 0,0 l/m 0,0 km/h (0 Bft) 0 min 0,0 km/h (0 Bft)
17.04.2010 01:04 15,8 C 5,1 C 0,0 UV-I 0,0 C 45 % 73 % 0 % 1025,2 hPa 0,0 l/m 0,0 km/h (0 Bft) 0 min 0,0 km/h (0 Bft)
17.04.2010 01:06 15,9 C 5,1 C 0,0 UV-I 0,0 C 45 % 73 % 0 % 1025,2 hPa 0,0 l/m 0,4 km/h (0 Bft) 0 min 4,4 km/h (1 Bft)
17.04.2010 01:08 15,8 C 5,1 C 0,0 UV-I 0,0 C 45 % 73 % 0 % 1025,2 hPa 0,0 l/m 0,8 km/h (0 Bft) 0 min 6,0 km/h (2 Bft)
17.04.2010 01:10 15,8 C 5,1 C 0,0 UV-I 0,0 C 45 % 73 % 0 % 1025,2 hPa 0,0 l/m 1,6 km/h (1 Bft) 0 min 0,0 km/h (0 Bft)
17.04.2010 01:12 15,8 C 5,1 C 0,0 UV-I 0,0 C 45 % 73 % 0 % 1025,0 hPa 0,0 l/m 2,4 km/h (1 Bft) 0 min 6,0 km/h (2 Bft)
17.04.2010 01:14 15,8 C 5,1 C 0,0 UV-I 0,0 C 46 % 73 % 0 % 1025,0 hPa 0,0 l/m 2,8 km/h (1 Bft) 0 min 5,6 km/h (1 Bft)
17.04.2010 01:16 15,8 C 5,0 C 0,0 UV-I 0,0 C 45 % 73 % 0 % 1025,0 hPa 0,0 l/m 3,6 km/h (1 Bft) 0 min 4,4 km/h (1 Bft)
17.04.2010 01:18 15,8 C 5,1 C 0,0 UV-I 0,0 C 45 % 73 % 0 % 1025,0 hPa 0,0 l/m 3,6 km/h (1 Bft) 0 min 4,8 km/h (1 Bft)
17.04.2010 01:20 15,8 C 4,9 C 0,0 UV-I 0,0 C 46 % 73 % 0 % 1025,0 hPa 0,0 l/m 3,2 km/h (1 Bft) 0 min 0,0 km/h (0 Bft)
17.04.2010 01:22 15,8 C 4,9 C 0,0 UV-I 0,0 C 45 % 73 % 0 % 1025,0 hPa 0,0 l/m 2,8 km/h (1 Bft) 0 min 0,0 km/h (0 Bft)
17.04.2010 01:24 15,8 C 4,9 C 0,0 UV-I 0,0 C 46 % 73 % 0 % 1025,0 hPa 0,0 l/m 2,0 km/h (1 Bft) 0 min 0,0 km/h (0 Bft)
17.04.2010 01:26 15,8 C 4,8 C 0,0 UV-I 0,0 C 46 % 73 % 0 % 1025,0 hPa 0,0 l/m 1,6 km/h (1 Bft) 0 min 0,0 km/h (0 Bft)
17.04.2010 01:28 15,8 C 4,8 C 0,0 UV-I 0,0 C 45 % 73 % 0 % 1025,0 hPa 0,0 l/m 0,4 km/h (0 Bft) 0 min 0,0 km/h (0 Bft)
17.04.2010 01:30 15,8 C 4,8 C 0,0 UV-I 0,0 C 46 % 73 % 0 % 1025,0 hPa 0,0 l/m 0,4 km/h (0 Bft) 0 min 0,0 km/h (0 Bft)
17.04.2010 01:32 15,6 C 4,9 C 0,0 UV-I 0,0 C 46 % 73 % 0 % 1024,9 hPa 0,0 l/m 0,4 km/h (0 Bft) 0 min 0,0 km/h (0 Bft)
17.04.2010 01:34 15,8 C 4,8 C 0,0 UV-I 0,0 C 46 % 73 % 0 % 1024,9 hPa 0,0 l/m 0,0 km/h (0 Bft) 0 min 0,0 km/h (0 Bft)
17.04.2010 01:36 15,8 C 4,7 C 0,0 UV-I 0,0 C 46 % 73 % 0 % 1024,9 hPa 0,0 l/m 0,0 km/h (0 Bft) 0 min 0,0 km/h (0 Bft)
17.04.2010 01:38 15,6 C 4,7 C 0,0 UV-I 0,0 C 46 % 73 % 0 % 1024,9 hPa 0,0 l/m 0,0 km/h (0 Bft) 0 min 0,0 km/h (0 Bft)
17.04.2010 01:40 15,6 C 4,7 C 0,0 UV-I 0,0 C 46 % 74 % 0 % 1024,9 hPa 0,0 l/m 0,0 km/h (0 Bft) 0 min 0,0 km/h (0 Bft)
17.04.2010 01:42 15,6 C 4,7 C 0,0 UV-I 0,0 C 46 % 74 % 0 % 1024,9 hPa 0,0 l/m 0,0 km/h (0 Bft) 0 min 0,0 km/h (0 Bft)
17.04.2010 01:44 15,6 C 4,6 C 0,0 UV-I 0,0 C 46 % 74 % 0 % 1024,9 hPa 0,0 l/m 0,0 km/h (0 Bft) 0 min 0,0 km/h (0 Bft)
17.04.2010 01:48 15,6 C 4,5 C 0,0 UV-I 0,0 C 46 % 75 % 0 % 1024,9 hPa 0,0 l/m 0,0 km/h (0 Bft) 0 min 0,0 km/h (0 Bft)
17.04.2010 01:50 15,6 C 4,4 C 0,0 UV-I 0,0 C 46 % 75 % 0 % 1024,9 hPa 0,0 l/m 0,0 km/h (0 Bft) 0 min 0,0 km/h (0 Bft)
17.04.2010 01:52 15,6 C 4,5 C 0,0 UV-I 0,0 C 46 % 75 % 0 % 1025,1 hPa 0,0 l/m 0,0 km/h (0 Bft) 0 min 0,0 km/h (0 Bft)
17.04.2010 01:54 15,6 C 4,4 C 0,0 UV-I 0,0 C 46 % 75 % 0 % 1025,1 hPa 0,0 l/m 0,0 km/h (0 Bft) 0 min 0,0 km/h (0 Bft)
17.04.2010 01:56 15,6 C 4,3 C 0,0 UV-I 0,0 C 46 % 75 % 0 % 1025,1 hPa 0,0 l/m 0,0 km/h (0 Bft) 0 min 0,0 km/h (0 Bft)
17.04.2010 01:58 15,7 C 4,3 C 0,0 UV-I 0,0 C 46 % 75 % 0 % 1025,1 hPa 0,0 l/m 0,0 km/h (0 Bft) 0 min 0,0 km/h (0 Bft)
17.04.2010 02:00 15,7 C 4,3 C 0,0 UV-I 0,0 C 46 % 76 % 0 % 1025,1 hPa 0,0 l/m 0,0 km/h (0 Bft) 0 min 0,0 km/h (0 Bft)
17.04.2010 02:04 15,6 C 4,1 C 0,0 UV-I 0,0 C 46 % 76 % 0 % 1025,1 hPa 0,0 l/m 0,0 km/h (0 Bft) 0 min 0,0 km/h (0 Bft)
17.04.2010 02:06 15,6 C 4,1 C 0,0 UV-I 0,0 C 46 % 76 % 0 % 1025,1 hPa 0,0 l/m 0,0 km/h (0 Bft) 0 min 0,0 km/h (0 Bft)
17.04.2010 02:08 15,6 C 4,0 C 0,0 UV-I 0,0 C 46 % 76 % 0 % 1025,1 hPa 0,0 l/m 0,0 km/h (0 Bft) 0 min 0,0 km/h (0 Bft)
17.04.2010 02:10 15,6 C 4,1 C 0,0 UV-I 0,0 C 46 % 76 % 0 % 1025,1 hPa 0,0 l/m 0,0 km/h (0 Bft) 0 min 0,0 km/h (0 Bft)
17.04.2010 02:12 15,6 C 4,0 C 0,0 UV-I 0,0 C 46 % 76 % 0 % 1025,0 hPa 0,0 l/m 0,0 km/h (0 Bft) 0 min 0,0 km/h (0 Bft)
17.04.2010 02:14 15,6 C 3,9 C 0,0 UV-I 0,0 C 46 % 76 % 0 % 1025,0 hPa 0,0 l/m 0,0 km/h (0 Bft) 0 min 0,0 km/h (0 Bft)
17.04.2010 02:16 15,6 C 3,9 C 0,0 UV-I 0,0 C 46 % 76 % 0 % 1025,0 hPa 0,0 l/m 0,0 km/h (0 Bft) 0 min 0,0 km/h (0 Bft)
17.04.2010 02:18 15,6 C 3,8 C 0,0 UV-I 0,0 C 46 % 77 % 0 % 1025,0 hPa 0,0 l/m 0,0 km/h (0 Bft) 0 min 0,0 km/h (0 Bft)
17.04.2010 02:20 15,6 C 3,9 C 0,0 UV-I 0,0 C 46 % 77 % 0 % 1025,0 hPa 0,0 l/m 0,0 km/h (0 Bft) 0 min 0,0 km/h (0 Bft)
17.04.2010 02:22 15,6 C 3,8 C 0,0 UV-I 0,0 C 46 % 77 % 0 % 1025,0 hPa 0,0 l/m 0,0 km/h (0 Bft) 0 min 0,0 km/h (0 Bft)
17.04.2010 02:24 15,6 C 3,7 C 0,0 UV-I 0,0 C 46 % 77 % 0 % 1025,0 hPa 0,0 l/m 0,0 km/h (0 Bft) 0 min 0,0 km/h (0 Bft)
17.04.2010 02:26 15,6 C 3,7 C 0,0 UV-I 0,0 C 46 % 77 % 0 % 1025,0 hPa 0,0 l/m 0,0 km/h (0 Bft) 0 min 0,0 km/h (0 Bft)
17.04.2010 02:28 15,6 C 3,6 C 0,0 UV-I 0,0 C 46 % 77 % 0 % 1025,0 hPa 0,0 l/m 0,0 km/h (0 Bft) 0 min 0,0 km/h (0 Bft)
17.04.2010 02:30 15,6 C 3,6 C 0,0 UV-I 0,0 C 46 % 78 % 0 % 1025,0 hPa 0,0 l/m 0,0 km/h (0 Bft) 0 min 0,0 km/h (0 Bft)
17.04.2010 02:34 15,6 C 3,5 C 0,0 UV-I 0,0 C 46 % 78 % 0 % 1025,1 hPa 0,0 l/m 0,0 km/h (0 Bft) 0 min 0,0 km/h (0 Bft)
17.04.2010 02:36 15,6 C 3,5 C 0,0 UV-I 0,0 C 46 % 78 % 0 % 1025,1 hPa 0,0 l/m 0,0 km/h (0 Bft) 0 min 0,0 km/h (0 Bft)
17.04.2010 02:38 15,6 C 3,4 C 0,0 UV-I 0,0 C 46 % 78 % 0 % 1025,1 hPa 0,0 l/m 0,0 km/h (0 Bft) 0 min 0,0 km/h (0 Bft)
17.04.2010 02:40 15,6 C 3,5 C 0,0 UV-I 0,0 C 46 % 78 % 0 % 1025,1 hPa 0,0 l/m 0,0 km/h (0 Bft) 0 min 0,0 km/h (0 Bft)
17.04.2010 02:42 15,6 C 3,4 C 0,0 UV-I 0,0 C 46 % 78 % 0 % 1025,1 hPa 0,0 l/m 0,0 km/h (0 Bft) 0 min 0,0 km/h (0 Bft)
17.04.2010 02:44 15,6 C 3,3 C 0,0 UV-I 0,0 C 46 % 78 % 0 % 1025,1 hPa 0,0 l/m 0,0 km/h (0 Bft) 0 min 0,0 km/h (0 Bft)
17.04.2010 02:48 15,4 C 3,2 C 0,0 UV-I 0,0 C 46 % 79 % 0 % 1025,1 hPa 0,0 l/m 0,0 km/h (0 Bft) 0 min 0,0 km/h (0 Bft)
17.04.2010 02:50 15,4 C 3,3 C 0,0 UV-I 0,0 C 46 % 79 % 0 % 1025,1 hPa 0,0 l/m 0,0 km/h (0 Bft) 0 min 0,0 km/h (0 Bft)
17.04.2010 02:52 15,4 C 3,2 C 0,0 UV-I 0,0 C 46 % 79 % 0 % 1025,1 hPa 0,0 l/m 0,0 km/h (0 Bft) 0 min 0,0 km/h (0 Bft)
17.04.2010 02:54 15,4 C 3,2 C 0,0 UV-I 0,0 C 46 % 79 % 0 % 1025,1 hPa 0,0 l/m 0,0 km/h (0 Bft) 0 min 0,0 km/h (0 Bft)
17.04.2010 02:56 15,5 C 3,1 C 0,0 UV-I 0,0 C 46 % 79 % 0 % 1025,1 hPa 0,0 l/m 0,0 km/h (0 Bft) 0 min 0,0 km/h (0 Bft)
17.04.2010 02:58 15,5 C 3,0 C 0,0 UV-I 0,0 C 46 % 79 % 0 % 1025,1 hPa 0,0 l/m 0,0 km/h (0 Bft) 0 min 0,0 km/h (0 Bft)
17.04.2010 03:00 15,5 C 3,1 C 0,0 UV-I 0,0 C 46 % 79 % 0 % 1025,1 hPa 0,0 l/m 0,0 km/h (0 Bft) 0 min 0,0 km/h (0 Bft)
17.04.2010 03:02 15,5 C 3,0 C 0,0 UV-I 0,0 C 46 % 79 % 0 % 1025,1 hPa 0,0 l/m 0,0 km/h (0 Bft) 0 min 0,0 km/h (0 Bft)
17.04.2010 03:04 15,5 C 3,0 C 0,0 UV-I 0,0 C 46 % 79 % 0 % 1025,1 hPa 0,0 l/m 0,0 km/h (0 Bft) 0 min 0,0 km/h (0 Bft)
17.04.2010 03:06 15,3 C 2,9 C 0,0 UV-I 0,0 C 46 % 79 % 0 % 1025,1 hPa 0,0 l/m 0,0 km/h (0 Bft) 0 min 0,0 km/h (0 Bft)
17.04.2010 03:08 15,5 C 2,9 C 0,0 UV-I 0,0 C 46 % 80 % 0 % 1025,1 hPa 0,0 l/m 0,0 km/h (0 Bft) 0 min 0,0 km/h (0 Bft)
17.04.2010 03:10 15,5 C 2,8 C 0,0 UV-I 0,0 C 46 % 80 % 0 % 1025,1 hPa 0,0 l/m 0,0 km/h (0 Bft) 0 min 0,0 km/h (0 Bft)
17.04.2010 03:12 15,3 C 2,9 C 0,0 UV-I 0,0 C 46 % 80 % 0 % 1025,4 hPa 0,0 l/m 0,0 km/h (0 Bft) 0 min 0,0 km/h (0 Bft)
17.04.2010 03:14 15,3 C 2,8 C 0,0 UV-I 0,0 C 46 % 80 % 0 % 1025,4 hPa 0,0 l/m 0,0 km/h (0 Bft) 0 min 0,0 km/h (0 Bft)
17.04.2010 03:16 15,3 C 2,8 C 0,0 UV-I 0,0 C 46 % 80 % 0 % 1025,4 hPa 0,0 l/m 0,0 km/h (0 Bft) 0 min 0,0 km/h (0 Bft)
17.04.2010 03:18 15,4 C 2,7 C 0,0 UV-I 0,0 C 46 % 80 % 0 % 1025,4 hPa 0,0 l/m 0,0 km/h (0 Bft) 0 min 0,0 km/h (0 Bft)
17.04.2010 03:20 15,4 C 2,6 C 0,0 UV-I 0,0 C 46 % 80 % 0 % 1025,4 hPa 0,0 l/m 0,0 km/h (0 Bft) 0 min 0,0 km/h (0 Bft)
17.04.2010 03:22 15,4 C 2,7 C 0,0 UV-I 0,0 C 46 % 80 % 0 % 1025,4 hPa 0,0 l/m 0,0 km/h (0 Bft) 0 min 0,0 km/h (0 Bft)
17.04.2010 03:24 15,4 C 2,6 C 0,0 UV-I 0,0 C 46 % 80 % 0 % 1025,4 hPa 0,0 l/m 0,0 km/h (0 Bft) 0 min 0,0 km/h (0 Bft)
17.04.2010 03:28 15,4 C 2,5 C 0,0 UV-I 0,0 C 46 % 80 % 0 % 1025,4 hPa 0,0 l/m 0,0 km/h (0 Bft) 0 min 0,0 km/h (0 Bft)
17.04.2010 03:30 15,4 C 2,4 C 0,0 UV-I 0,0 C 46 % 81 % 0 % 1025,4 hPa 0,0 l/m 0,0 km/h (0 Bft) 0 min 0,0 km/h (0 Bft)
17.04.2010 03:32 15,4 C 2,4 C 0,0 UV-I 0,0 C 46 % 81 % 0 % 1024,9 hPa 0,0 l/m 0,0 km/h (0 Bft) 0 min 0,0 km/h (0 Bft)
17.04.2010 03:34 15,4 C 2,5 C 0,0 UV-I 0,0 C 46 % 81 % 0 % 1024,9 hPa 0,0 l/m 0,0 km/h (0 Bft) 0 min 0,0 km/h (0 Bft)
17.04.2010 03:36 15,4 C 2,4 C 0,0 UV-I 0,0 C 46 % 81 % 0 % 1024,9 hPa 0,0 l/m 0,0 km/h (0 Bft) 0 min 0,0 km/h (0 Bft)
17.04.2010 03:38 15,4 C 2,4 C 0,0 UV-I 0,0 C 46 % 81 % 0 % 1024,9 hPa 0,0 l/m 0,0 km/h (0 Bft) 0 min 0,0 km/h (0 Bft)
17.04.2010 03:40 15,4 C 2,4 C 0,0 UV-I 0,0 C 46 % 81 % 0 % 1024,9 hPa 0,0 l/m 0,0 km/h (0 Bft) 0 min 0,0 km/h (0 Bft)
17.04.2010 03:42 15,4 C 2,3 C 0,0 UV-I 0,0 C 46 % 81 % 0 % 1024,9 hPa 0,0 l/m 0,0 km/h (0 Bft) 0 min 0,0 km/h (0 Bft)
17.04.2010 03:44 15,4 C 2,3 C 0,0 UV-I 0,0 C 46 % 81 % 0 % 1024,9 hPa 0,0 l/m 0,0 km/h (0 Bft) 0 min 0,0 km/h (0 Bft)
17.04.2010 03:46 15,2 C 2,2 C 0,0 UV-I 0,0 C 46 % 81 % 0 % 1024,9 hPa 0,0 l/m 0,0 km/h (0 Bft) 0 min 0,0 km/h (0 Bft)
17.04.2010 03:48 15,2 C 2,3 C 0,0 UV-I 0,0 C 46 % 81 % 0 % 1024,9 hPa 0,0 l/m 0,0 km/h (0 Bft) 0 min 0,0 km/h (0 Bft)
17.04.2010 03:50 15,2 C 2,1 C 0,0 UV-I 0,0 C 46 % 81 % 0 % 1024,9 hPa 0,0 l/m 0,0 km/h (0 Bft) 0 min 0,0 km/h (0 Bft)
17.04.2010 03:52 15,2 C 2,1 C 0,0 UV-I 0,0 C 46 % 81 % 0 % 1024,9 hPa 0,0 l/m 0,0 km/h (0 Bft) 0 min 0,0 km/h (0 Bft)
17.04.2010 03:54 15,2 C 2,1 C 0,0 UV-I 0,0 C 46 % 81 % 0 % 1024,9 hPa 0,0 l/m 0,0 km/h (0 Bft) 0 min 0,0 km/h (0 Bft)
17.04.2010 03:56 15,2 C 2,0 C 0,0 UV-I 0,0 C 46 % 82 % 0 % 1024,9 hPa 0,0 l/m 0,0 km/h (0 Bft) 0 min 0,0 km/h (0 Bft)
17.04.2010 03:58 15,2 C 2,0 C 0,0 UV-I 0,0 C 46 % 82 % 0 % 1024,9 hPa 0,0 l/m 0,0 km/h (0 Bft) 0 min 0,0 km/h (0 Bft)
17.04.2010 04:00 15,2 C 2,1 C 0,0 UV-I 0,0 C 46 % 82 % 0 % 1024,9 hPa 0,0 l/m 0,0 km/h (0 Bft) 0 min 0,0 km/h (0 Bft)
17.04.2010 04:02 15,2 C 2,0 C 0,0 UV-I 0,0 C 46 % 82 % 0 % 1024,9 hPa 0,0 l/m 0,0 km/h (0 Bft) 0 min 0,0 km/h (0 Bft)
17.04.2010 04:04 15,2 C 2,0 C 0,0 UV-I 0,0 C 46 % 82 % 0 % 1024,9 hPa 0,0 l/m 0,0 km/h (0 Bft) 0 min 0,0 km/h (0 Bft)
17.04.2010 04:06 15,3 C 1,9 C 0,0 UV-I 0,0 C 46 % 82 % 0 % 1024,9 hPa 0,0 l/m 0,0 km/h (0 Bft) 0 min 0,0 km/h (0 Bft)
17.04.2010 04:08 15,3 C 1,9 C 0,0 UV-I 0,0 C 46 % 82 % 0 % 1024,9 hPa 0,0 l/m 0,0 km/h (0 Bft) 0 min 0,0 km/h (0 Bft)
17.04.2010 04:10 15,3 C 1,9 C 0,0 UV-I 0,0 C 46 % 82 % 0 % 1024,9 hPa 0,0 l/m 0,0 km/h (0 Bft) 0 min 0,0 km/h (0 Bft)
17.04.2010 04:13 15,3 C 1,8 C 0,0 UV-I 0,0 C 46 % 82 % 0 % 1024,6 hPa 0,0 l/m 0,0 km/h (0 Bft) 0 min 0,0 km/h (0 Bft)
17.04.2010 04:18 15,1 C 1,7 C 0,0 UV-I 0,0 C 46 % 82 % 0 % 1024,6 hPa 0,0 l/m 0,0 km/h (0 Bft) 0 min 0,0 km/h (0 Bft)
17.04.2010 04:19 15,1 C 1,7 C 0,0 UV-I 0,0 C 46 % 82 % 0 % 1024,6 hPa 0,0 l/m 0,0 km/h (0 Bft) 0 min 0,0 km/h (0 Bft)
17.04.2010 04:20 15,1 C 1,7 C 0,0 UV-I 0,0 C 46 % 82 % 0 % 1024,6 hPa 0,0 l/m 0,0 km/h (0 Bft) 0 min 0,0 km/h (0 Bft)
17.04.2010 04:22 15,1 C 1,7 C 0,0 UV-I 0,0 C 46 % 83 % 0 % 1024,6 hPa 0,0 l/m 0,0 km/h (0 Bft) 0 min 0,0 km/h (0 Bft)
17.04.2010 04:24 15,1 C 1,6 C 0,0 UV-I 0,0 C 46 % 83 % 0 % 1024,6 hPa 0,0 l/m 0,0 km/h (0 Bft) 0 min 0,0 km/h (0 Bft)
17.04.2010 04:26 15,1 C 1,6 C 0,0 UV-I 0,0 C 46 % 83 % 0 % 1024,6 hPa 0,0 l/m 0,0 km/h (0 Bft) 0 min 0,0 km/h (0 Bft)
17.04.2010 04:28 15,1 C 1,6 C 0,0 UV-I 0,0 C 46 % 83 % 0 % 1024,6 hPa 0,0 l/m 0,0 km/h (0 Bft) 0 min 0,0 km/h (0 Bft)
17.04.2010 04:30 15,1 C 1,6 C 0,0 UV-I 0,0 C 46 % 83 % 0 % 1024,6 hPa 0,0 l/m 0,0 km/h (0 Bft) 0 min 0,0 km/h (0 Bft)
17.04.2010 04:32 15,2 C 1,6 C 0,0 UV-I 0,0 C 46 % 83 % 0 % 1024,3 hPa 0,0 l/m 0,0 km/h (0 Bft) 0 min 0,0 km/h (0 Bft)
17.04.2010 04:34 15,2 C 1,6 C 0,0 UV-I 0,0 C 46 % 83 % 0 % 1024,3 hPa 0,0 l/m 0,0 km/h (0 Bft) 0 min 0,0 km/h (0 Bft)
17.04.2010 04:36 15,2 C 1,6 C 0,0 UV-I 0,0 C 46 % 83 % 0 % 1024,3 hPa 0,0 l/m 0,0 km/h (0 Bft) 0 min 0,0 km/h (0 Bft)
17.04.2010 04:38 15,2 C 1,6 C 0,0 UV-I 0,0 C 46 % 83 % 0 % 1024,3 hPa 0,0 l/m 0,0 km/h (0 Bft) 0 min 0,0 km/h (0 Bft)
17.04.2010 04:40 15,2 C 1,5 C 0,0 UV-I 0,0 C 46 % 83 % 0 % 1024,3 hPa 0,0 l/m 0,0 km/h (0 Bft) 0 min 0,0 km/h (0 Bft)
17.04.2010 04:42 15,2 C 1,5 C 0,0 UV-I 0,0 C 46 % 83 % 0 % 1024,3 hPa 0,0 l/m 0,0 km/h (0 Bft) 0 min 0,0 km/h (0 Bft)
17.04.2010 04:44 15,2 C 1,5 C 0,0 UV-I 0,0 C 46 % 83 % 0 % 1024,3 hPa 0,0 l/m 0,0 km/h (0 Bft) 0 min 0,0 km/h (0 Bft)
17.04.2010 04:46 15,2 C 1,5 C 0,0 UV-I 0,0 C 45 % 83 % 0 % 1024,3 hPa 0,0 l/m 0,0 km/h (0 Bft) 0 min 0,0 km/h (0 Bft)
17.04.2010 04:48 15,2 C 1,5 C 0,0 UV-I 0,0 C 45 % 83 % 0 % 1024,3 hPa 0,0 l/m 0,0 km/h (0 Bft) 0 min 0,0 km/h (0 Bft)
17.04.2010 04:50 15,2 C 1,5 C 0,0 UV-I 0,0 C 46 % 84 % 0 % 1024,3 hPa 0,0 l/m 0,0 km/h (0 Bft) 0 min 0,0 km/h (0 Bft)
17.04.2010 04:52 15,2 C 1,5 C 0,0 UV-I 0,0 C 46 % 84 % 0 % 1024,3 hPa 0,0 l/m 0,0 km/h (0 Bft) 0 min 0,0 km/h (0 Bft)
17.04.2010 04:54 15,2 C 1,5 C 0,0 UV-I 0,0 C 46 % 84 % 0 % 1024,3 hPa 0,0 l/m 0,0 km/h (0 Bft) 0 min 0,0 km/h (0 Bft)
17.04.2010 04:56 15,2 C 1,4 C 0,0 UV-I 0,0 C 46 % 84 % 0 % 1024,3 hPa 0,0 l/m 0,0 km/h (0 Bft) 0 min 0,0 km/h (0 Bft)
17.04.2010 04:58 15,2 C 1,4 C 0,0 UV-I 0,0 C 46 % 84 % 0 % 1024,3 hPa 0,0 l/m 0,0 km/h (0 Bft) 0 min 0,0 km/h (0 Bft)
17.04.2010 05:00 15,2 C 1,3 C 0,0 UV-I 0,0 C 45 % 84 % 0 % 1024,3 hPa 0,0 l/m 0,0 km/h (0 Bft) 0 min 0,0 km/h (0 Bft)
17.04.2010 05:02 15,2 C 1,3 C 0,0 UV-I 0,0 C 46 % 84 % 0 % 1024,3 hPa 0,0 l/m 0,0 km/h (0 Bft) 0 min 0,0 km/h (0 Bft)
17.04.2010 05:04 15,1 C 1,3 C 0,0 UV-I 0,0 C 46 % 84 % 0 % 1024,3 hPa 0,0 l/m 0,0 km/h (0 Bft) 0 min 0,0 km/h (0 Bft)
17.04.2010 05:06 15,2 C 1,3 C 0,0 UV-I 0,0 C 45 % 84 % 0 % 1024,3 hPa 0,0 l/m 0,0 km/h (0 Bft) 0 min 0,0 km/h (0 Bft)
17.04.2010 05:08 15,1 C 1,3 C 0,0 UV-I 0,0 C 46 % 84 % 0 % 1024,3 hPa 0,0 l/m 0,0 km/h (0 Bft) 0 min 0,0 km/h (0 Bft)
17.04.2010 05:10 15,1 C 1,3 C 0,0 UV-I 0,0 C 46 % 84 % 0 % 1024,3 hPa 0,0 l/m 0,0 km/h (0 Bft) 0 min 0,0 km/h (0 Bft)
17.04.2010 05:12 15,1 C 1,2 C 0,0 UV-I 0,0 C 46 % 84 % 0 % 1024,4 hPa 0,0 l/m 0,0 km/h (0 Bft) 0 min 0,0 km/h (0 Bft)
17.04.2010 05:14 15,1 C 1,2 C 0,0 UV-I 0,0 C 46 % 84 % 0 % 1024,4 hPa 0,0 l/m 0,0 km/h (0 Bft) 0 min 0,0 km/h (0 Bft)
17.04.2010 05:16 15,1 C 1,2 C 0,0 UV-I 0,0 C 46 % 84 % 0 % 1024,4 hPa 0,0 l/m 0,0 km/h (0 Bft) 0 min 0,0 km/h (0 Bft)
17.04.2010 05:18 15,1 C 1,3 C 0,0 UV-I 0,0 C 46 % 84 % 0 % 1024,4 hPa 0,0 l/m 0,0 km/h (0 Bft) 0 min 0,0 km/h (0 Bft)
17.04.2010 05:20 15,1 C 1,2 C 0,0 UV-I 0,0 C 46 % 85 % 0 % 1024,4 hPa 0,0 l/m 0,0 km/h (0 Bft) 0 min 0,0 km/h (0 Bft)
17.04.2010 05:22 15,1 C 1,2 C 0,0 UV-I 0,0 C 46 % 85 % 0 % 1024,4 hPa 0,0 l/m 0,0 km/h (0 Bft) 0 min 0,0 km/h (0 Bft)
17.04.2010 05:24 15,1 C 1,2 C 0,0 UV-I 0,0 C 46 % 85 % 0 % 1024,4 hPa 0,0 l/m 0,0 km/h (0 Bft) 0 min 0,0 km/h (0 Bft)
17.04.2010 05:26 15,1 C 1,2 C 0,0 UV-I 0,0 C 46 % 85 % 0 % 1024,4 hPa 0,0 l/m 0,0 km/h (0 Bft) 0 min 0,0 km/h (0 Bft)
17.04.2010 05:28 15,1 C 1,2 C 0,0 UV-I 0,0 C 46 % 85 % 0 % 1024,4 hPa 0,0 l/m 0,0 km/h (0 Bft) 0 min 0,0 km/h (0 Bft)
17.04.2010 05:30 15,1 C 1,1 C 0,0 UV-I 0,0 C 45 % 85 % 0 % 1024,4 hPa 0,0 l/m 0,0 km/h (0 Bft) 0 min 0,0 km/h (0 Bft)
17.04.2010 05:32 15,1 C 1,1 C 0,0 UV-I 0,0 C 46 % 85 % 0 % 1024,3 hPa 0,0 l/m 0,0 km/h (0 Bft) 0 min 0,0 km/h (0 Bft)
17.04.2010 05:34 14,9 C 1,1 C 0,0 UV-I 0,0 C 46 % 85 % 0 % 1024,3 hPa 0,0 l/m 0,0 km/h (0 Bft) 0 min 0,0 km/h (0 Bft)
17.04.2010 05:36 14,9 C 1,0 C 0,0 UV-I 0,0 C 45 % 85 % 0 % 1024,3 hPa 0,0 l/m 0,0 km/h (0 Bft) 0 min 0,0 km/h (0 Bft)
17.04.2010 05:38 14,9 C 1,1 C 0,0 UV-I 0,0 C 46 % 85 % 0 % 1024,3 hPa 0,0 l/m 0,0 km/h (0 Bft) 0 min 0,0 km/h (0 Bft)
17.04.2010 05:40 14,9 C 1,1 C 0,0 UV-I 0,0 C 45 % 85 % 0 % 1024,3 hPa 0,0 l/m 0,0 km/h (0 Bft) 0 min 0,0 km/h (0 Bft)
17.04.2010 05:42 15,0 C 1,1 C 0,0 UV-I 0,0 C 45 % 85 % 0 % 1024,3 hPa 0,0 l/m 0,0 km/h (0 Bft) 0 min 0,0 km/h (0 Bft)
17.04.2010 05:44 15,0 C 1,1 C 0,0 UV-I 0,0 C 46 % 85 % 0 % 1024,3 hPa 0,0 l/m 0,0 km/h (0 Bft) 0 min 0,0 km/h (0 Bft)
17.04.2010 05:46 15,0 C 1,0 C 0,0 UV-I 0,0 C 45 % 85 % 0 % 1024,3 hPa 0,0 l/m 0,0 km/h (0 Bft) 0 min 0,0 km/h (0 Bft)
17.04.2010 05:48 15,0 C 1,0 C 0,0 UV-I 0,0 C 45 % 85 % 0 % 1024,3 hPa 0,0 l/m 0,0 km/h (0 Bft) 0 min 0,0 km/h (0 Bft)
17.04.2010 05:50 15,0 C 1,0 C 0,0 UV-I 0,0 C 45 % 85 % 0 % 1024,3 hPa 0,0 l/m 0,0 km/h (0 Bft) 0 min 0,0 km/h (0 Bft)
17.04.2010 05:52 15,0 C 0,9 C 0,0 UV-I 0,0 C 45 % 85 % 0 % 1024,2 hPa 0,0 l/m 0,0 km/h (0 Bft) 0 min 0,0 km/h (0 Bft)
17.04.2010 05:54 15,0 C 0,9 C 0,0 UV-I 0,0 C 45 % 85 % 0 % 1024,2 hPa 0,0 l/m 0,0 km/h (0 Bft) 0 min 0,0 km/h (0 Bft)
17.04.2010 05:56 15,0 C 0,9 C 0,0 UV-I 0,0 C 45 % 85 % 0 % 1024,2 hPa 0,0 l/m 0,0 km/h (0 Bft) 0 min 0,0 km/h (0 Bft)
17.04.2010 05:58 15,0 C 0,8 C 0,0 UV-I 0,0 C 45 % 85 % 0 % 1024,2 hPa 0,0 l/m 0,0 km/h (0 Bft) 0 min 0,0 km/h (0 Bft)
17.04.2010 06:00 15,0 C 0,8 C 0,0 UV-I 0,0 C 45 % 85 % 0 % 1024,2 hPa 0,0 l/m 0,0 km/h (0 Bft) 0 min 0,0 km/h (0 Bft)
17.04.2010 06:02 15,0 C 0,8 C 0,0 UV-I 0,0 C 45 % 85 % 0 % 1024,2 hPa 0,0 l/m 0,0 km/h (0 Bft) 0 min 0,0 km/h (0 Bft)
17.04.2010 06:04 15,0 C 0,8 C 0,0 UV-I 0,0 C 45 % 85 % 0 % 1024,2 hPa 0,0 l/m 0,0 km/h (0 Bft) 0 min 0,0 km/h (0 Bft)
17.04.2010 06:06 15,0 C 0,9 C 0,0 UV-I 0,0 C 45 % 85 % 0 % 1024,2 hPa 0,0 l/m 0,0 km/h (0 Bft) 0 min 0,0 km/h (0 Bft)
17.04.2010 06:08 15,0 C 0,8 C 0,0 UV-I 0,0 C 45 % 85 % 0 % 1024,2 hPa 0,0 l/m 0,0 km/h (0 Bft) 0 min 0,0 km/h (0 Bft)
17.04.2010 06:10 15,0 C 0,8 C 0,0 UV-I 0,0 C 45 % 85 % 0 % 1024,2 hPa 0,0 l/m 0,0 km/h (0 Bft) 0 min 0,0 km/h (0 Bft)
17.04.2010 06:12 14,8 C 0,8 C 0,0 UV-I 0,0 C 45 % 85 % 0 % 1024,0 hPa 0,0 l/m 0,0 km/h (0 Bft) 0 min 0,0 km/h (0 Bft)
17.04.2010 06:14 14,8 C 0,7 C 0,0 UV-I 0,0 C 45 % 85 % 0 % 1024,0 hPa 0,0 l/m 0,0 km/h (0 Bft) 0 min 0,0 km/h (0 Bft)
17.04.2010 06:16 14,8 C 0,7 C 0,0 UV-I 0,0 C 45 % 85 % 0 % 1024,0 hPa 0,0 l/m 0,0 km/h (0 Bft) 0 min 0,0 km/h (0 Bft)
17.04.2010 06:18 14,8 C 0,7 C 0,0 UV-I 0,0 C 45 % 85 % 0 % 1024,0 hPa 0,0 l/m 0,0 km/h (0 Bft) 0 min 0,0 km/h (0 Bft)
17.04.2010 06:20 14,8 C 0,7 C 0,0 UV-I 0,0 C 45 % 86 % 0 % 1024,0 hPa 0,0 l/m 0,0 km/h (0 Bft) 0 min 0,0 km/h (0 Bft)
17.04.2010 06:22 14,8 C 0,7 C 0,0 UV-I 0,0 C 45 % 86 % 0 % 1024,0 hPa 0,0 l/m 0,0 km/h (0 Bft) 0 min 0,0 km/h (0 Bft)
17.04.2010 06:24 14,8 C 0,7 C 0,0 UV-I 0,0 C 45 % 86 % 0 % 1024,0 hPa 0,0 l/m 0,0 km/h (0 Bft) 0 min 0,0 km/h (0 Bft)
17.04.2010 06:26 14,8 C 0,7 C 0,0 UV-I 0,0 C 45 % 86 % 0 % 1024,0 hPa 0,0 l/m 0,0 km/h (0 Bft) 0 min 0,0 km/h (0 Bft)
17.04.2010 06:28 14,8 C 0,6 C 0,0 UV-I 0,0 C 45 % 86 % 0 % 1024,0 hPa 0,0 l/m 0,0 km/h (0 Bft) 0 min 0,0 km/h (0 Bft)
17.04.2010 06:30 14,8 C 0,7 C 0,0 UV-I 0,0 C 45 % 86 % 0 % 1024,0 hPa 0,0 l/m 0,0 km/h (0 Bft) 0 min 0,0 km/h (0 Bft)
17.04.2010 06:32 14,9 C 0,7 C 0,0 UV-I 0,0 C 45 % 86 % 0 % 1024,0 hPa 0,0 l/m 0,0 km/h (0 Bft) 0 min 0,0 km/h (0 Bft)
17.04.2010 06:34 14,8 C 0,7 C 0,0 UV-I 0,0 C 45 % 86 % 0 % 1024,0 hPa 0,0 l/m 0,0 km/h (0 Bft) 0 min 0,0 km/h (0 Bft)
17.04.2010 06:36 14,9 C 0,6 C 0,0 UV-I 0,0 C 45 % 86 % 0 % 1024,0 hPa 0,0 l/m 0,0 km/h (0 Bft) 0 min 0,0 km/h (0 Bft)
17.04.2010 06:38 14,9 C 0,5 C 0,0 UV-I 0,0 C 45 % 86 % 0 % 1024,0 hPa 0,0 l/m 0,0 km/h (0 Bft) 0 min 0,0 km/h (0 Bft)
17.04.2010 06:40 14,9 C 0,6 C 0,0 UV-I 0,0 C 45 % 86 % 0 % 1024,0 hPa 0,0 l/m 0,0 km/h (0 Bft) 0 min 0,0 km/h (0 Bft)
17.04.2010 06:42 14,8 C 0,5 C 0,0 UV-I 0,0 C 45 % 86 % 0 % 1024,0 hPa 0,0 l/m 0,0 km/h (0 Bft) 0 min 0,0 km/h (0 Bft)
17.04.2010 06:44 14,8 C 0,5 C 0,0 UV-I 0,0 C 45 % 86 % 0 % 1024,0 hPa 0,0 l/m 0,0 km/h (0 Bft) 0 min 0,0 km/h (0 Bft)
17.04.2010 06:46 14,9 C 0,5 C 0,0 UV-I 0,0 C 45 % 86 % 0 % 1024,0 hPa 0,0 l/m 0,0 km/h (0 Bft) 0 min 0,0 km/h (0 Bft)
17.04.2010 06:48 14,8 C 0,5 C 0,0 UV-I 0,0 C 45 % 86 % 0 % 1024,0 hPa 0,0 l/m 0,0 km/h (0 Bft) 0 min 0,0 km/h (0 Bft)
17.04.2010 06:50 14,8 C 0,4 C 0,0 UV-I 0,0 C 45 % 86 % 0 % 1024,0 hPa 0,0 l/m 0,0 km/h (0 Bft) 0 min 0,0 km/h (0 Bft)
17.04.2010 06:52 14,8 C 0,4 C 0,0 UV-I 0,0 C 45 % 86 % 0 % 1024,1 hPa 0,0 l/m 0,0 km/h (0 Bft) 0 min 0,0 km/h (0 Bft)
17.04.2010 06:54 14,8 C 0,4 C 0,0 UV-I 0,0 C 45 % 86 % 0 % 1024,1 hPa 0,0 l/m 0,0 km/h (0 Bft) 0 min 0,0 km/h (0 Bft)
17.04.2010 06:56 14,8 C 0,4 C 0,0 UV-I 0,0 C 45 % 86 % 0 % 1024,1 hPa 0,0 l/m 0,0 km/h (0 Bft) 0 min 0,0 km/h (0 Bft)
17.04.2010 06:58 14,8 C 0,4 C 0,0 UV-I 0,0 C 45 % 86 % 0 % 1024,1 hPa 0,0 l/m 0,0 km/h (0 Bft) 0 min 0,0 km/h (0 Bft)
17.04.2010 07:00 14,8 C 0,4 C 0,0 UV-I 0,0 C 45 % 87 % 0 % 1024,1 hPa 0,0 l/m 0,0 km/h (0 Bft) 0 min 0,0 km/h (0 Bft)
17.04.2010 07:02 14,8 C 0,4 C 0,0 UV-I 0,0 C 45 % 87 % 0 % 1024,1 hPa 0,0 l/m 0,0 km/h (0 Bft) 0 min 0,0 km/h (0 Bft)
17.04.2010 07:04 14,8 C 0,4 C 0,0 UV-I 0,0 C 45 % 87 % 0 % 1024,1 hPa 0,0 l/m 0,0 km/h (0 Bft) 0 min 0,0 km/h (0 Bft)
17.04.2010 07:06 14,8 C 0,4 C 0,0 UV-I 0,0 C 45 % 87 % 0 % 1024,1 hPa 0,0 l/m 0,0 km/h (0 Bft) 0 min 0,0 km/h (0 Bft)
17.04.2010 07:08 14,8 C 0,5 C 0,0 UV-I 0,0 C 45 % 87 % 0 % 1024,1 hPa 0,0 l/m 0,0 km/h (0 Bft) 0 min 0,0 km/h (0 Bft)
17.04.2010 07:10 14,8 C 0,5 C 0,0 UV-I 0,0 C 45 % 87 % 0 % 1024,1 hPa 0,0 l/m 0,0 km/h (0 Bft) 0 min 0,0 km/h (0 Bft)
17.04.2010 07:12 14,8 C 0,5 C 0,0 UV-I 0,0 C 45 % 87 % 0 % 1024,6 hPa 0,0 l/m 0,0 km/h (0 Bft) 0 min 0,0 km/h (0 Bft)
17.04.2010 07:14 14,8 C 0,4 C 0,0 UV-I 0,0 C 45 % 87 % 0 % 1024,6 hPa 0,0 l/m 0,0 km/h (0 Bft) 0 min 0,0 km/h (0 Bft)
17.04.2010 07:16 14,8 C 0,4 C 0,0 UV-I 0,0 C 45 % 87 % 0 % 1024,6 hPa 0,0 l/m 0,0 km/h (0 Bft) 0 min 0,0 km/h (0 Bft)
17.04.2010 07:18 14,8 C 0,4 C 0,0 UV-I 0,0 C 45 % 87 % 0 % 1024,6 hPa 0,0 l/m 0,0 km/h (0 Bft) 0 min 0,0 km/h (0 Bft)
17.04.2010 07:20 14,8 C 0,4 C 0,0 UV-I 0,0 C 45 % 87 % 0 % 1024,6 hPa 0,0 l/m 0,0 km/h (0 Bft) 0 min 0,0 km/h (0 Bft)
17.04.2010 07:22 14,8 C 0,4 C 0,0 UV-I 0,0 C 45 % 87 % 0 % 1024,6 hPa 0,0 l/m 0,0 km/h (0 Bft) 0 min 0,0 km/h (0 Bft)
17.04.2010 07:24 14,8 C 0,4 C 0,0 UV-I 0,0 C 45 % 87 % 0 % 1024,6 hPa 0,0 l/m 0,0 km/h (0 Bft) 0 min 0,0 km/h (0 Bft)
17.04.2010 07:26 14,8 C 0,4 C 0,0 UV-I 0,0 C 45 % 87 % 0 % 1024,6 hPa 0,0 l/m 0,0 km/h (0 Bft) 0 min 0,0 km/h (0 Bft)
17.04.2010 07:28 14,8 C 0,4 C 0,0 UV-I 0,0 C 45 % 87 % 0 % 1024,6 hPa 0,0 l/m 0,0 km/h (0 Bft) 0 min 0,0 km/h (0 Bft)
17.04.2010 07:30 14,8 C 0,4 C 0,0 UV-I 0,0 C 45 % 87 % 0 % 1024,6 hPa 0,0 l/m 0,0 km/h (0 Bft) 0 min 0,0 km/h (0 Bft)
17.04.2010 07:32 14,8 C 0,5 C 0,0 UV-I 0,0 C 45 % 87 % 0 % 1024,4 hPa 0,0 l/m 0,0 km/h (0 Bft) 0 min 0,0 km/h (0 Bft)
17.04.2010 07:34 14,8 C 0,5 C 0,0 UV-I 0,0 C 45 % 87 % 0 % 1024,4 hPa 0,0 l/m 0,0 km/h (0 Bft) 0 min 0,0 km/h (0 Bft)
17.04.2010 07:36 14,8 C 0,7 C 0,0 UV-I 0,0 C 45 % 88 % 0 % 1024,4 hPa 0,0 l/m 0,0 km/h (0 Bft) 0 min 0,0 km/h (0 Bft)
17.04.2010 07:38 14,8 C 0,7 C 0,0 UV-I 0,0 C 46 % 88 % 0 % 1024,4 hPa 0,0 l/m 0,0 km/h (0 Bft) 0 min 0,0 km/h (0 Bft)
17.04.2010 07:40 14,8 C 0,7 C 0,1 UV-I 0,0 C 46 % 88 % 0 % 1024,4 hPa 0,0 l/m 0,0 km/h (0 Bft) 0 min 0,0 km/h (0 Bft)
17.04.2010 07:42 14,8 C 0,7 C 0,1 UV-I 0,0 C 46 % 88 % 0 % 1024,4 hPa 0,0 l/m 0,0 km/h (0 Bft) 0 min 0,0 km/h (0 Bft)
17.04.2010 07:44 14,8 C 0,7 C 0,1 UV-I 0,0 C 46 % 88 % 0 % 1024,4 hPa 0,0 l/m 0,0 km/h (0 Bft) 0 min 0,0 km/h (0 Bft)
17.04.2010 07:46 14,8 C 0,7 C 0,2 UV-I 0,0 C 46 % 88 % 0 % 1024,4 hPa 0,0 l/m 0,0 km/h (0 Bft) 0 min 0,0 km/h (0 Bft)
17.04.2010 07:48 14,8 C 0,7 C 0,2 UV-I 0,0 C 46 % 88 % 0 % 1024,4 hPa 0,0 l/m 0,0 km/h (0 Bft) 0 min 0,0 km/h (0 Bft)
17.04.2010 07:50 14,8 C 0,8 C 0,2 UV-I 0,0 C 46 % 88 % 0 % 1024,4 hPa 0,0 l/m 0,0 km/h (0 Bft) 0 min 0,0 km/h (0 Bft)
17.04.2010 07:52 14,8 C 0,8 C 0,2 UV-I 0,0 C 46 % 88 % 0 % 1024,2 hPa 0,0 l/m 0,0 km/h (0 Bft) 0 min 0,0 km/h (0 Bft)
17.04.2010 07:54 14,8 C 0,8 C 0,2 UV-I 0,0 C 46 % 88 % 0 % 1024,2 hPa 0,0 l/m 0,0 km/h (0 Bft) 0 min 0,0 km/h (0 Bft)
17.04.2010 07:56 14,8 C 0,8 C 0,2 UV-I 0,0 C 46 % 88 % 0 % 1024,2 hPa 0,0 l/m 0,0 km/h (0 Bft) 0 min 0,0 km/h (0 Bft)
17.04.2010 07:58 14,8 C 0,8 C 0,2 UV-I 0,0 C 46 % 88 % 0 % 1024,2 hPa 0,0 l/m 0,0 km/h (0 Bft) 0 min 0,0 km/h (0 Bft)
17.04.2010 08:00 14,8 C 0,8 C 0,2 UV-I 0,0 C 46 % 88 % 0 % 1024,2 hPa 0,0 l/m 0,0 km/h (0 Bft) 0 min 0,0 km/h (0 Bft)
17.04.2010 08:02 14,8 C 0,9 C 0,2 UV-I 0,0 C 46 % 89 % 0 % 1024,2 hPa 0,0 l/m 0,0 km/h (0 Bft) 0 min 0,0 km/h (0 Bft)
17.04.2010 08:04 14,8 C 1,0 C 0,2 UV-I 0,0 C 46 % 89 % 0 % 1024,2 hPa 0,0 l/m 0,0 km/h (0 Bft) 0 min 0,0 km/h (0 Bft)
17.04.2010 08:06 14,8 C 1,1 C 0,4 UV-I 0,0 C 46 % 89 % 0 % 1024,2 hPa 0,0 l/m 0,0 km/h (0 Bft) 0 min 0,0 km/h (0 Bft)
17.04.2010 08:08 14,8 C 1,1 C 0,4 UV-I 0,0 C 46 % 89 % 0 % 1024,2 hPa 0,0 l/m 0,0 km/h (0 Bft) 0 min 0,0 km/h (0 Bft)
17.04.2010 08:10 14,6 C 1,0 C 0,4 UV-I 0,0 C 46 % 89 % 0 % 1024,2 hPa 0,0 l/m 0,0 km/h (0 Bft) 0 min 0,0 km/h (0 Bft)
17.04.2010 08:12 14,8 C 1,1 C 0,4 UV-I 0,0 C 46 % 89 % 0 % 1024,1 hPa 0,0 l/m 0,0 km/h (0 Bft) 0 min 0,0 km/h (0 Bft)
17.04.2010 08:14 14,8 C 1,1 C 0,4 UV-I 0,0 C 46 % 89 % 0 % 1024,1 hPa 0,0 l/m 0,0 km/h (0 Bft) 0 min 0,0 km/h (0 Bft)
17.04.2010 08:16 14,6 C 1,1 C 0,5 UV-I 0,0 C 46 % 89 % 0 % 1024,1 hPa 0,0 l/m 0,0 km/h (0 Bft) 0 min 0,0 km/h (0 Bft)
17.04.2010 08:18 14,8 C 1,1 C 0,5 UV-I 0,0 C 46 % 89 % 0 % 1024,1 hPa 0,0 l/m 0,0 km/h (0 Bft) 0 min 0,0 km/h (0 Bft)
17.04.2010 08:20 14,8 C 1,2 C 0,6 UV-I 0,0 C 46 % 89 % 0 % 1024,1 hPa 0,0 l/m 0,0 km/h (0 Bft) 0 min 0,0 km/h (0 Bft)
17.04.2010 08:22 14,8 C 1,2 C 0,6 UV-I 0,0 C 46 % 89 % 0 % 1024,1 hPa 0,0 l/m 0,0 km/h (0 Bft) 0 min 0,0 km/h (0 Bft)
17.04.2010 08:24 14,8 C 1,2 C 0,6 UV-I 0,1 C 46 % 89 % 3 % 1024,1 hPa 0,0 l/m 0,0 km/h (0 Bft) 0 min 0,0 km/h (0 Bft)
17.04.2010 08:26 14,8 C 1,2 C 0,7 UV-I 0,2 C 46 % 89 % 6 % 1024,1 hPa 0,0 l/m 0,0 km/h (0 Bft) 0 min 0,0 km/h (0 Bft)
17.04.2010 08:28 14,8 C 1,4 C 0,7 UV-I 0,0 C 46 % 89 % 0 % 1024,1 hPa 0,0 l/m 0,0 km/h (0 Bft) 0 min 0,0 km/h (0 Bft)
17.04.2010 08:30 14,8 C 1,5 C 0,7 UV-I 0,1 C 46 % 89 % 3 % 1024,1 hPa 0,0 l/m 0,0 km/h (0 Bft) 0 min 0,0 km/h (0 Bft)
17.04.2010 08:32 14,8 C 1,5 C 0,7 UV-I 0,2 C 46 % 89 % 6 % 1023,9 hPa 0,0 l/m 0,0 km/h (0 Bft) 0 min 0,0 km/h (0 Bft)
17.04.2010 08:34 14,8 C 1,5 C 0,7 UV-I 0,3 C 46 % 89 % 9 % 1023,9 hPa 0,0 l/m 0,0 km/h (0 Bft) 0 min 0,0 km/h (0 Bft)
17.04.2010 08:36 14,8 C 1,7 C 0,8 UV-I 0,3 C 46 % 89 % 9 % 1023,9 hPa 0,0 l/m 0,0 km/h (0 Bft) 0 min 0,0 km/h (0 Bft)
17.04.2010 08:38 14,8 C 1,6 C 0,8 UV-I 0,5 C 46 % 89 % 14 % 1023,9 hPa 0,0 l/m 0,0 km/h (0 Bft) 0 min 0,0 km/h (0 Bft)
17.04.2010 08:40 14,8 C 1,6 C 0,8 UV-I 0,6 C 46 % 89 % 17 % 1023,9 hPa 0,0 l/m 0,0 km/h (0 Bft) 0 min 0,0 km/h (0 Bft)
17.04.2010 08:42 14,8 C 1,8 C 0,8 UV-I 0,6 C 46 % 89 % 17 % 1023,9 hPa 0,0 l/m 0,0 km/h (0 Bft) 0 min 0,0 km/h (0 Bft)
17.04.2010 08:44 14,8 C 1,9 C 0,8 UV-I 0,6 C 46 % 90 % 17 % 1023,9 hPa 0,0 l/m 0,0 km/h (0 Bft) 0 min 0,0 km/h (0 Bft)
17.04.2010 08:46 14,8 C 1,9 C 0,8 UV-I 0,7 C 46 % 90 % 20 % 1023,9 hPa 0,0 l/m 0,0 km/h (0 Bft) 0 min 0,0 km/h (0 Bft)
17.04.2010 08:48 14,8 C 1,9 C 0,8 UV-I 0,9 C 46 % 90 % 26 % 1023,9 hPa 0,0 l/m 0,0 km/h (0 Bft) 0 min 0,0 km/h (0 Bft)
17.04.2010 08:50 14,8 C 2,0 C 0,9 UV-I 0,8 C 46 % 90 % 23 % 1023,9 hPa 0,0 l/m 0,0 km/h (0 Bft) 0 min 0,0 km/h (0 Bft)
17.04.2010 08:52 14,8 C 2,0 C 0,9 UV-I 1,0 C 46 % 90 % 29 % 1023,9 hPa 0,0 l/m 0,0 km/h (0 Bft) 0 min 0,0 km/h (0 Bft)
17.04.2010 08:54 14,8 C 2,3 C 0,9 UV-I 0,9 C 46 % 90 % 26 % 1023,9 hPa 0,0 l/m 0,0 km/h (0 Bft) 0 min 0,0 km/h (0 Bft)
17.04.2010 08:56 14,8 C 2,2 C 0,9 UV-I 1,1 C 46 % 90 % 31 % 1023,9 hPa 0,0 l/m 0,0 km/h (0 Bft) 0 min 0,0 km/h (0 Bft)
17.04.2010 08:58 14,8 C 2,3 C 0,9 UV-I 1,1 C 46 % 90 % 31 % 1023,9 hPa 0,0 l/m 0,0 km/h (0 Bft) 0 min 0,0 km/h (0 Bft)
17.04.2010 09:00 14,8 C 2,4 C 0,8 UV-I 1,1 C 46 % 90 % 31 % 1023,9 hPa 0,0 l/m 0,0 km/h (0 Bft) 0 min 0,0 km/h (0 Bft)
17.04.2010 09:02 14,8 C 2,4 C 0,8 UV-I 1,3 C 46 % 90 % 37 % 1023,9 hPa 0,0 l/m 0,4 km/h (0 Bft) 0 min 6,4 km/h (2 Bft)
17.04.2010 09:04 14,8 C 2,6 C 0,8 UV-I 1,2 C 46 % 90 % 34 % 1023,9 hPa 0,0 l/m 0,8 km/h (0 Bft) 0 min 0,0 km/h (0 Bft)
17.04.2010 09:06 14,8 C 2,6 C 0,8 UV-I 1,4 C 46 % 90 % 40 % 1023,9 hPa 0,0 l/m 0,8 km/h (0 Bft) 0 min 0,0 km/h (0 Bft)
17.04.2010 09:08 14,8 C 2,7 C 0,8 UV-I 1,4 C 46 % 89 % 40 % 1023,9 hPa 0,0 l/m 0,8 km/h (0 Bft) 0 min 0,0 km/h (0 Bft)
17.04.2010 09:10 14,8 C 2,8 C 0,8 UV-I 1,5 C 46 % 89 % 43 % 1023,9 hPa 0,0 l/m 0,8 km/h (0 Bft) 0 min 0,0 km/h (0 Bft)
17.04.2010 09:12 14,8 C 2,9 C 0,8 UV-I 1,5 C 46 % 89 % 43 % 1024,1 hPa 0,0 l/m 0,8 km/h (0 Bft) 0 min 0,0 km/h (0 Bft)
17.04.2010 09:14 14,8 C 3,1 C 0,8 UV-I 1,5 C 46 % 89 % 43 % 1024,1 hPa 0,0 l/m 0,0 km/h (0 Bft) 0 min 0,0 km/h (0 Bft)
17.04.2010 09:16 14,8 C 3,1 C 0,9 UV-I 1,6 C 46 % 89 % 46 % 1024,1 hPa 0,0 l/m 0,0 km/h (0 Bft) 0 min 0,0 km/h (0 Bft)
17.04.2010 09:18 14,8 C 3,0 C 0,9 UV-I 1,8 C 46 % 89 % 51 % 1024,1 hPa 0,0 l/m 0,0 km/h (0 Bft) 0 min 0,0 km/h (0 Bft)
17.04.2010 09:20 14,8 C 3,2 C 0,9 UV-I 1,8 C 46 % 89 % 51 % 1024,1 hPa 0,0 l/m 0,0 km/h (0 Bft) 0 min 0,0 km/h (0 Bft)
17.04.2010 09:22 14,8 C 3,3 C 0,9 UV-I 1,8 C 46 % 89 % 51 % 1024,1 hPa 0,0 l/m 0,0 km/h (0 Bft) 0 min 0,0 km/h (0 Bft)
17.04.2010 09:24 14,8 C 3,2 C 0,9 UV-I 2,1 C 46 % 88 % 60 % 1024,1 hPa 0,0 l/m 0,0 km/h (0 Bft) 0 min 4,0 km/h (1 Bft)
17.04.2010 09:26 14,8 C 3,3 C 0,8 UV-I 2,0 C 46 % 88 % 57 % 1024,1 hPa 0,0 l/m 0,8 km/h (0 Bft) 0 min 6,4 km/h (2 Bft)
17.04.2010 09:28 14,8 C 3,5 C 0,8 UV-I 2,1 C 46 % 88 % 60 % 1024,1 hPa 0,0 l/m 0,8 km/h (0 Bft) 0 min 0,0 km/h (0 Bft)
17.04.2010 09:30 14,8 C 3,6 C 1,0 UV-I 2,0 C 46 % 88 % 57 % 1024,1 hPa 0,0 l/m 0,8 km/h (0 Bft) 0 min 0,0 km/h (0 Bft)
17.04.2010 09:32 14,8 C 3,7 C 1,0 UV-I 2,1 C 46 % 88 % 60 % 1023,9 hPa 0,0 l/m 0,8 km/h (0 Bft) 0 min 0,0 km/h (0 Bft)
17.04.2010 09:34 14,9 C 3,8 C 1,0 UV-I 2,1 C 46 % 88 % 60 % 1023,9 hPa 0,0 l/m 0,8 km/h (0 Bft) 0 min 0,0 km/h (0 Bft)
17.04.2010 09:36 14,9 C 3,8 C 0,9 UV-I 2,2 C 46 % 88 % 63 % 1023,9 hPa 0,0 l/m 0,4 km/h (0 Bft) 0 min 0,0 km/h (0 Bft)
17.04.2010 09:38 14,9 C 4,0 C 0,9 UV-I 2,1 C 46 % 87 % 60 % 1023,9 hPa 0,0 l/m 0,0 km/h (0 Bft) 0 min 0,0 km/h (0 Bft)
17.04.2010 09:40 14,9 C 4,1 C 0,9 UV-I 2,2 C 46 % 87 % 63 % 1023,9 hPa 0,0 l/m 0,0 km/h (0 Bft) 0 min 0,0 km/h (0 Bft)
17.04.2010 09:42 14,9 C 4,1 C 0,9 UV-I 2,3 C 46 % 87 % 66 % 1023,9 hPa 0,0 l/m 0,0 km/h (0 Bft) 0 min 0,0 km/h (0 Bft)
17.04.2010 09:44 14,9 C 4,2 C 0,9 UV-I 2,3 C 46 % 87 % 66 % 1023,9 hPa 0,0 l/m 0,0 km/h (0 Bft) 0 min 0,0 km/h (0 Bft)
17.04.2010 09:46 14,8 C 4,3 C 0,8 UV-I 2,4 C 46 % 87 % 69 % 1023,9 hPa 0,0 l/m 0,0 km/h (0 Bft) 0 min 0,0 km/h (0 Bft)
17.04.2010 09:48 14,8 C 4,3 C 0,8 UV-I 2,6 C 46 % 86 % 74 % 1023,9 hPa 0,0 l/m 0,0 km/h (0 Bft) 0 min 0,0 km/h (0 Bft)
17.04.2010 09:50 14,8 C 4,4 C 0,8 UV-I 3,9 C 46 % 86 % 100 % 1023,9 hPa 0,0 l/m 0,0 km/h (0 Bft) 2 min 0,0 km/h (0 Bft)
17.04.2010 09:52 14,8 C 4,4 C 0,8 UV-I 5,2 C 46 % 86 % 100 % 1023,9 hPa 0,0 l/m 0,0 km/h (0 Bft) 2 min 0,0 km/h (0 Bft)
17.04.2010 09:54 14,8 C 4,5 C 0,8 UV-I 6,7 C 46 % 86 % 100 % 1023,9 hPa 0,0 l/m 0,0 km/h (0 Bft) 2 min 0,0 km/h (0 Bft)
17.04.2010 09:56 15,0 C 4,7 C 1,0 UV-I 7,6 C 46 % 86 % 100 % 1023,9 hPa 0,0 l/m 0,0 km/h (0 Bft) 2 min 4,4 km/h (1 Bft)
17.04.2010 09:58 15,0 C 4,7 C 1,0 UV-I 8,8 C 46 % 85 % 100 % 1023,9 hPa 0,0 l/m 0,4 km/h (0 Bft) 2 min 0,0 km/h (0 Bft)
17.04.2010 10:00 15,0 C 4,8 C 1,1 UV-I 9,6 C 46 % 85 % 100 % 1023,9 hPa 0,0 l/m 0,8 km/h (0 Bft) 2 min 7,6 km/h (2 Bft)
17.04.2010 10:02 15,0 C 5,0 C 1,1 UV-I 9,7 C 46 % 84 % 100 % 1023,9 hPa 0,0 l/m 0,8 km/h (0 Bft) 2 min 0,0 km/h (0 Bft)
17.04.2010 10:04 15,0 C 5,0 C 1,1 UV-I 10,1 C 46 % 84 % 100 % 1023,9 hPa 0,0 l/m 1,2 km/h (1 Bft) 2 min 8,0 km/h (2 Bft)
17.04.2010 10:06 15,0 C 5,2 C 1,0 UV-I 10,3 C 46 % 83 % 100 % 1023,9 hPa 0,0 l/m 1,6 km/h (1 Bft) 2 min 4,4 km/h (1 Bft)
17.04.2010 10:08 15,0 C 5,4 C 1,0 UV-I 10,5 C 46 % 82 % 100 % 1023,9 hPa 0,0 l/m 2,0 km/h (1 Bft) 2 min 0,0 km/h (0 Bft)
17.04.2010 10:10 15,0 C 5,6 C 1,1 UV-I 10,6 C 46 % 82 % 100 % 1023,9 hPa 0,0 l/m 2,8 km/h (1 Bft) 2 min 10,8 km/h (2 Bft)
17.04.2010 10:12 15,0 C 5,9 C 1,1 UV-I 10,2 C 46 % 81 % 100 % 1023,8 hPa 0,0 l/m 2,4 km/h (1 Bft) 2 min 0,0 km/h (0 Bft)
17.04.2010 10:14 15,0 C 5,9 C 1,1 UV-I 10,3 C 46 % 81 % 100 % 1023,8 hPa 0,0 l/m 2,4 km/h (1 Bft) 2 min 0,0 km/h (0 Bft)
17.04.2010 10:16 15,0 C 6,0 C 1,6 UV-I 10,6 C 46 % 80 % 100 % 1023,8 hPa 0,0 l/m 2,0 km/h (1 Bft) 2 min 0,0 km/h (0 Bft)
17.04.2010 10:18 15,0 C 6,1 C 1,6 UV-I 10,7 C 46 % 80 % 100 % 1023,8 hPa 0,0 l/m 2,4 km/h (1 Bft) 2 min 9,2 km/h (2 Bft)
17.04.2010 10:20 14,9 C 6,2 C 1,6 UV-I 10,7 C 46 % 80 % 100 % 1023,8 hPa 0,0 l/m 2,0 km/h (1 Bft) 2 min 0,0 km/h (0 Bft)
17.04.2010 10:22 15,0 C 6,3 C 1,6 UV-I 10,9 C 46 % 79 % 100 % 1023,8 hPa 0,0 l/m 1,2 km/h (1 Bft) 2 min 6,4 km/h (2 Bft)
17.04.2010 10:24 15,0 C 6,3 C 1,6 UV-I 11,1 C 46 % 79 % 100 % 1023,8 hPa 0,0 l/m 1,6 km/h (1 Bft) 2 min 4,8 km/h (1 Bft)
17.04.2010 10:26 14,9 C 6,4 C 1,6 UV-I 11,3 C 46 % 78 % 100 % 1023,8 hPa 0,0 l/m 1,6 km/h (1 Bft) 2 min 5,2 km/h (1 Bft)
17.04.2010 10:28 14,9 C 6,5 C 1,6 UV-I 11,5 C 46 % 78 % 100 % 1023,8 hPa 0,0 l/m 1,6 km/h (1 Bft) 2 min 6,0 km/h (2 Bft)
17.04.2010 10:30 14,9 C 6,7 C 1,8 UV-I 11,2 C 46 % 77 % 100 % 1023,8 hPa 0,0 l/m 1,2 km/h (1 Bft) 2 min 12,4 km/h (3 Bft)
17.04.2010 10:32 15,1 C 6,8 C 1,8 UV-I 11,0 C 46 % 77 % 100 % 1023,5 hPa 0,0 l/m 2,4 km/h (1 Bft) 2 min 5,2 km/h (1 Bft)
17.04.2010 10:34 14,9 C 6,9 C 1,8 UV-I 10,9 C 46 % 76 % 100 % 1023,5 hPa 0,0 l/m 2,0 km/h (1 Bft) 2 min 4,4 km/h (1 Bft)
17.04.2010 10:36 14,9 C 7,0 C 1,5 UV-I 11,1 C 46 % 76 % 100 % 1023,5 hPa 0,0 l/m 2,0 km/h (1 Bft) 2 min 5,2 km/h (1 Bft)
17.04.2010 10:38 14,9 C 7,3 C 1,5 UV-I 11,0 C 46 % 75 % 100 % 1023,5 hPa 0,0 l/m 2,4 km/h (1 Bft) 2 min 0,0 km/h (0 Bft)
17.04.2010 10:40 15,1 C 7,2 C 1,5 UV-I 11,3 C 46 % 74 % 100 % 1023,5 hPa 0,0 l/m 2,4 km/h (1 Bft) 2 min 6,4 km/h (2 Bft)
17.04.2010 10:42 15,1 C 7,3 C 1,5 UV-I 11,2 C 46 % 74 % 100 % 1023,5 hPa 0,0 l/m 2,0 km/h (1 Bft) 2 min 0,0 km/h (0 Bft)
17.04.2010 10:44 15,1 C 7,5 C 1,5 UV-I 11,2 C 46 % 73 % 100 % 1023,5 hPa 0,0 l/m 1,6 km/h (1 Bft) 2 min 4,0 km/h (1 Bft)
17.04.2010 10:46 15,1 C 7,7 C 1,9 UV-I 11,1 C 46 % 72 % 100 % 1023,5 hPa 0,0 l/m 2,0 km/h (1 Bft) 2 min 4,4 km/h (1 Bft)
17.04.2010 10:48 15,1 C 7,7 C 1,9 UV-I 11,0 C 46 % 72 % 100 % 1023,5 hPa 0,0 l/m 1,2 km/h (1 Bft) 2 min 0,0 km/h (0 Bft)
17.04.2010 10:50 15,1 C 7,9 C 3,1 UV-I 11,1 C 46 % 71 % 100 % 1023,5 hPa 0,0 l/m 0,8 km/h (0 Bft) 2 min 0,0 km/h (0 Bft)
17.04.2010 10:52 15,1 C 7,9 C 3,1 UV-I 11,3 C 46 % 71 % 100 % 1023,6 hPa 0,0 l/m 1,2 km/h (1 Bft) 2 min 4,8 km/h (1 Bft)
17.04.2010 10:54 15,1 C 8,0 C 3,1 UV-I 11,3 C 46 % 70 % 100 % 1023,6 hPa 0,0 l/m 1,2 km/h (1 Bft) 2 min 0,0 km/h (0 Bft)
17.04.2010 10:56 15,1 C 8,2 C 1,8 UV-I 11,2 C 46 % 68 % 100 % 1023,6 hPa 0,0 l/m 1,6 km/h (1 Bft) 2 min 4,8 km/h (1 Bft)
17.04.2010 10:58 15,1 C 8,4 C 1,8 UV-I 10,8 C 46 % 67 % 100 % 1023,6 hPa 0,0 l/m 2,0 km/h (1 Bft) 2 min 4,0 km/h (1 Bft)
17.04.2010 11:00 15,2 C 8,6 C 6,7 UV-I 10,4 C 46 % 67 % 100 % 1023,6 hPa 0,0 l/m 2,8 km/h (1 Bft) 2 min 0,0 km/h (0 Bft)
17.04.2010 11:02 15,2 C 8,6 C 6,7 UV-I 10,4 C 45 % 65 % 100 % 1023,6 hPa 0,0 l/m 3,2 km/h (1 Bft) 2 min 9,6 km/h (2 Bft)
17.04.2010 11:04 15,2 C 8,7 C 6,7 UV-I 10,0 C 45 % 66 % 100 % 1023,6 hPa 0,0 l/m 4,8 km/h (1 Bft) 2 min 6,4 km/h (2 Bft)
17.04.2010 11:06 15,2 C 8,8 C 4,2 UV-I 9,5 C 45 % 66 % 100 % 1023,6 hPa 0,0 l/m 4,8 km/h (1 Bft) 2 min 0,0 km/h (0 Bft)
17.04.2010 11:08 15,2 C 9,1 C 4,2 UV-I 9,3 C 45 % 66 % 100 % 1023,6 hPa 0,0 l/m 4,0 km/h (1 Bft) 2 min 4,8 km/h (1 Bft)
17.04.2010 11:10 15,2 C 9,2 C 6,3 UV-I 9,4 C 45 % 65 % 100 % 1023,6 hPa 0,0 l/m 3,6 km/h (1 Bft) 2 min 0,0 km/h (0 Bft)
17.04.2010 11:12 15,2 C 9,3 C 6,3 UV-I 9,6 C 45 % 65 % 100 % 1023,8 hPa 0,0 l/m 3,6 km/h (1 Bft) 2 min 15,7 km/h (3 Bft)
17.04.2010 11:14 15,2 C 9,5 C 6,3 UV-I 9,2 C 45 % 65 % 100 % 1023,8 hPa 0,0 l/m 3,2 km/h (1 Bft) 2 min 0,0 km/h (0 Bft)
17.04.2010 11:16 15,2 C 9,7 C 8,3 UV-I 8,4 C 45 % 65 % 100 % 1023,8 hPa 0,0 l/m 4,0 km/h (1 Bft) 2 min 6,8 km/h (2 Bft)
17.04.2010 11:18 15,2 C 9,7 C 8,3 UV-I 8,2 C 45 % 63 % 100 % 1023,8 hPa 0,0 l/m 4,0 km/h (1 Bft) 2 min 0,0 km/h (0 Bft)
17.04.2010 11:20 15,2 C 9,8 C 3,6 UV-I 8,5 C 45 % 63 % 100 % 1023,8 hPa 0,0 l/m 4,0 km/h (1 Bft) 2 min 15,7 km/h (3 Bft)
17.04.2010 11:22 15,2 C 9,9 C 3,6 UV-I 9,2 C 45 % 63 % 100 % 1023,8 hPa 0,0 l/m 4,0 km/h (1 Bft) 2 min 5,6 km/h (1 Bft)
17.04.2010 11:24 15,2 C 10,0 C 3,6 UV-I 9,4 C 45 % 61 % 100 % 1023,8 hPa 0,0 l/m 2,4 km/h (1 Bft) 2 min 0,0 km/h (0 Bft)
17.04.2010 11:26 15,2 C 10,0 C 7,3 UV-I 9,9 C 45 % 61 % 100 % 1023,8 hPa 0,0 l/m 1,2 km/h (1 Bft) 2 min 4,4 km/h (1 Bft)
17.04.2010 11:28 15,2 C 10,2 C 7,3 UV-I 10,1 C 45 % 60 % 100 % 1023,8 hPa 0,0 l/m 0,4 km/h (0 Bft) 2 min 0,0 km/h (0 Bft)
17.04.2010 11:30 15,1 C 10,3 C 2,5 UV-I 10,2 C 45 % 59 % 100 % 1023,8 hPa 0,0 l/m 0,8 km/h (0 Bft) 2 min 4,4 km/h (1 Bft)
17.04.2010 11:32 15,1 C 10,4 C 2,5 UV-I 10,2 C 45 % 58 % 100 % 1023,6 hPa 0,0 l/m 0,8 km/h (0 Bft) 2 min 4,0 km/h (1 Bft)
17.04.2010 11:34 15,1 C 10,5 C 2,5 UV-I 10,2 C 45 % 57 % 100 % 1023,6 hPa 0,0 l/m 1,2 km/h (1 Bft) 2 min 4,8 km/h (1 Bft)
17.04.2010 11:36 15,1 C 10,7 C 3,4 UV-I 10,0 C 45 % 57 % 100 % 1023,6 hPa 0,0 l/m 1,6 km/h (1 Bft) 2 min 5,6 km/h (1 Bft)
17.04.2010 11:38 15,1 C 10,8 C 3,4 UV-I 10,0 C 45 % 57 % 100 % 1023,6 hPa 0,0 l/m 1,6 km/h (1 Bft) 2 min 0,0 km/h (0 Bft)
17.04.2010 11:40 15,1 C 10,8 C 4,9 UV-I 10,2 C 46 % 56 % 100 % 1023,6 hPa 0,0 l/m 2,0 km/h (1 Bft) 2 min 6,0 km/h (2 Bft)
17.04.2010 11:42 15,1 C 11,1 C 4,9 UV-I 9,9 C 45 % 55 % 100 % 1023,6 hPa 0,0 l/m 2,0 km/h (1 Bft) 2 min 0,0 km/h (0 Bft)
17.04.2010 11:44 15,3 C 11,2 C 4,9 UV-I 9,7 C 45 % 54 % 100 % 1023,6 hPa 0,0 l/m 1,6 km/h (1 Bft) 2 min 0,0 km/h (0 Bft)
17.04.2010 11:46 15,3 C 11,4 C 2,4 UV-I 9,4 C 45 % 53 % 100 % 1023,6 hPa 0,0 l/m 1,6 km/h (1 Bft) 2 min 0,0 km/h (0 Bft)
17.04.2010 11:48 15,3 C 11,5 C 2,4 UV-I 9,3 C 45 % 53 % 100 % 1023,6 hPa 0,0 l/m 0,8 km/h (0 Bft) 2 min 0,0 km/h (0 Bft)
17.04.2010 11:50 15,3 C 11,6 C 3,1 UV-I 9,4 C 45 % 53 % 100 % 1023,6 hPa 0,0 l/m 1,6 km/h (1 Bft) 2 min 6,0 km/h (2 Bft)
17.04.2010 11:52 15,2 C 11,7 C 3,1 UV-I 9,3 C 45 % 51 % 100 % 1023,2 hPa 0,0 l/m 1,2 km/h (1 Bft) 2 min 0,0 km/h (0 Bft)
17.04.2010 11:54 15,2 C 11,8 C 3,1 UV-I 9,3 C 45 % 51 % 100 % 1023,2 hPa 0,0 l/m 0,8 km/h (0 Bft) 2 min 4,4 km/h (1 Bft)
17.04.2010 11:56 15,2 C 12,1 C 10,5 UV-I 9,2 C 45 % 51 % 100 % 1023,2 hPa 0,0 l/m 1,2 km/h (1 Bft) 2 min 7,2 km/h (2 Bft)
17.04.2010 11:58 15,2 C 12,1 C 10,5 UV-I 9,1 C 45 % 52 % 100 % 1023,2 hPa 0,0 l/m 1,6 km/h (1 Bft) 2 min 5,6 km/h (1 Bft)
17.04.2010 12:00 15,2 C 12,3 C 10,6 UV-I 8,8 C 45 % 51 % 100 % 1023,2 hPa 0,0 l/m 2,4 km/h (1 Bft) 2 min 7,2 km/h (2 Bft)
17.04.2010 12:02 15,2 C 12,5 C 10,6 UV-I 8,6 C 45 % 52 % 100 % 1023,2 hPa 0,0 l/m 2,0 km/h (1 Bft) 2 min 0,0 km/h (0 Bft)
17.04.2010 12:04 15,4 C 12,7 C 10,6 UV-I 8,4 C 45 % 51 % 100 % 1023,2 hPa 0,0 l/m 2,0 km/h (1 Bft) 2 min 0,0 km/h (0 Bft)
17.04.2010 12:06 15,4 C 12,9 C 10,2 UV-I 8,0 C 45 % 51 % 100 % 1023,2 hPa 0,0 l/m 2,8 km/h (1 Bft) 2 min 0,0 km/h (0 Bft)
17.04.2010 12:08 15,4 C 12,8 C 10,2 UV-I 8,1 C 45 % 50 % 100 % 1023,2 hPa 0,0 l/m 3,6 km/h (1 Bft) 2 min 8,8 km/h (2 Bft)
17.04.2010 12:10 15,4 C 12,8 C 10,2 UV-I 8,1 C 45 % 49 % 100 % 1023,2 hPa 0,0 l/m 3,2 km/h (1 Bft) 2 min 5,2 km/h (1 Bft)
17.04.2010 12:12 15,4 C 12,9 C 10,2 UV-I 7,9 C 45 % 50 % 100 % 1023,2 hPa 0,0 l/m 3,6 km/h (1 Bft) 2 min 6,0 km/h (2 Bft)
17.04.2010 12:14 15,4 C 13,1 C 10,2 UV-I 7,6 C 45 % 49 % 100 % 1023,2 hPa 0,0 l/m 4,0 km/h (1 Bft) 2 min 5,2 km/h (1 Bft)
17.04.2010 12:16 15,3 C 13,2 C 10,5 UV-I 7,5 C 45 % 48 % 100 % 1023,2 hPa 0,0 l/m 4,0 km/h (1 Bft) 2 min 6,4 km/h (2 Bft)
17.04.2010 12:20 15,3 C 13,5 C 10,4 UV-I 7,2 C 45 % 47 % 100 % 1023,2 hPa 0,0 l/m 4,0 km/h (1 Bft) 2 min 8,4 km/h (2 Bft)
17.04.2010 12:22 15,5 C 13,5 C 10,4 UV-I 7,1 C 45 % 48 % 100 % 1023,2 hPa 0,0 l/m 4,4 km/h (1 Bft) 2 min 5,2 km/h (1 Bft)
17.04.2010 12:24 15,5 C 13,6 C 10,4 UV-I 6,9 C 45 % 47 % 100 % 1023,2 hPa 0,0 l/m 3,6 km/h (1 Bft) 2 min 5,2 km/h (1 Bft)
17.04.2010 12:26 15,5 C 13,7 C 10,4 UV-I 6,9 C 45 % 48 % 100 % 1023,2 hPa 0,0 l/m 3,2 km/h (1 Bft) 2 min 0,0 km/h (0 Bft)
17.04.2010 12:28 15,5 C 13,7 C 10,4 UV-I 7,3 C 45 % 48 % 100 % 1023,2 hPa 0,0 l/m 2,4 km/h (1 Bft) 2 min 4,4 km/h (1 Bft)
17.04.2010 12:30 15,5 C 13,8 C 10,5 UV-I 7,5 C 45 % 47 % 100 % 1023,2 hPa 0,0 l/m 2,4 km/h (1 Bft) 2 min 6,0 km/h (2 Bft)
17.04.2010 12:32 15,4 C 13,8 C 10,5 UV-I 7,4 C 45 % 48 % 100 % 1023,1 hPa 0,0 l/m 2,4 km/h (1 Bft) 2 min 4,4 km/h (1 Bft)
17.04.2010 12:34 15,6 C 13,8 C 10,5 UV-I 7,5 C 45 % 48 % 100 % 1023,1 hPa 0,0 l/m 2,0 km/h (1 Bft) 2 min 5,2 km/h (1 Bft)
17.04.2010 12:36 15,6 C 14,0 C 10,4 UV-I 7,4 C 45 % 47 % 100 % 1023,1 hPa 0,0 l/m 2,0 km/h (1 Bft) 2 min 0,0 km/h (0 Bft)
17.04.2010 12:38 15,6 C 14,1 C 10,4 UV-I 7,4 C 45 % 47 % 100 % 1023,1 hPa 0,0 l/m 2,4 km/h (1 Bft) 2 min 4,8 km/h (1 Bft)
17.04.2010 12:40 15,6 C 14,3 C 10,3 UV-I 7,2 C 45 % 46 % 100 % 1023,1 hPa 0,0 l/m 3,2 km/h (1 Bft) 2 min 7,2 km/h (2 Bft)
17.04.2010 12:42 15,6 C 14,3 C 10,3 UV-I 7,2 C 45 % 47 % 100 % 1023,1 hPa 0,0 l/m 2,8 km/h (1 Bft) 2 min 0,0 km/h (0 Bft)
17.04.2010 12:46 15,6 C 14,3 C 10,7 UV-I 7,6 C 45 % 45 % 100 % 1023,1 hPa 0,0 l/m 2,0 km/h (1 Bft) 2 min 5,6 km/h (1 Bft)
17.04.2010 12:48 15,6 C 14,4 C 10,7 UV-I 7,7 C 45 % 45 % 100 % 1023,1 hPa 0,0 l/m 2,0 km/h (1 Bft) 2 min 0,0 km/h (0 Bft)
17.04.2010 12:50 15,6 C 14,5 C 10,5 UV-I 7,8 C 45 % 45 % 100 % 1023,1 hPa 0,0 l/m 1,6 km/h (1 Bft) 2 min 6,8 km/h (2 Bft)
17.04.2010 12:52 15,7 C 14,7 C 10,5 UV-I 7,7 C 45 % 45 % 100 % 1023,1 hPa 0,0 l/m 1,2 km/h (1 Bft) 2 min 0,0 km/h (0 Bft)
17.04.2010 12:53 15,7 C 14,8 C 10,5 UV-I 7,8 C 45 % 43 % 100 % 1023,1 hPa 0,0 l/m 0,8 km/h (0 Bft) 1 min 0,0 km/h (0 Bft)
17.04.2010 12:58 15,8 C 14,8 C 11,5 UV-I 8,0 C 45 % 42 % 100 % 1023,1 hPa 0,0 l/m 2,4 km/h (1 Bft) 2 min 8,0 km/h (2 Bft)
17.04.2010 13:00 15,8 C 14,8 C 11,5 UV-I 8,0 C 45 % 42 % 100 % 1023,1 hPa 0,0 l/m 2,4 km/h (1 Bft) 2 min 8,0 km/h (2 Bft)
17.04.2010 13:02 15,8 C 14,9 C 11,5 UV-I 7,8 C 45 % 42 % 100 % 1023,1 hPa 0,0 l/m 2,0 km/h (1 Bft) 2 min 0,0 km/h (0 Bft)
17.04.2010 13:04 15,8 C 15,1 C 11,5 UV-I 7,7 C 45 % 42 % 100 % 1023,1 hPa 0,0 l/m 2,4 km/h (1 Bft) 2 min 5,2 km/h (1 Bft)
17.04.2010 13:06 15,8 C 15,1 C 11,2 UV-I 7,9 C 45 % 43 % 100 % 1023,1 hPa 0,0 l/m 2,4 km/h (1 Bft) 2 min 0,0 km/h (0 Bft)
17.04.2010 13:08 15,8 C 15,2 C 11,2 UV-I 7,9 C 45 % 43 % 100 % 1023,1 hPa 0,0 l/m 2,0 km/h (1 Bft) 2 min 6,8 km/h (2 Bft)
17.04.2010 13:10 15,9 C 15,2 C 11,1 UV-I 7,9 C 45 % 42 % 100 % 1023,1 hPa 0,0 l/m 2,0 km/h (1 Bft) 2 min 8,0 km/h (2 Bft)
17.04.2010 13:12 15,8 C 15,3 C 11,1 UV-I 7,8 C 45 % 42 % 100 % 1022,9 hPa 0,0 l/m 2,0 km/h (1 Bft) 2 min 4,4 km/h (1 Bft)
17.04.2010 13:14 15,8 C 15,3 C 11,1 UV-I 7,7 C 44 % 42 % 100 % 1022,9 hPa 0,0 l/m 2,0 km/h (1 Bft) 2 min 4,0 km/h (1 Bft)
17.04.2010 13:16 16,0 C 15,4 C 10,8 UV-I 7,6 C 44 % 42 % 100 % 1022,9 hPa 0,0 l/m 2,4 km/h (1 Bft) 2 min 4,8 km/h (1 Bft)
17.04.2010 13:18 16,0 C 15,3 C 10,8 UV-I 7,5 C 44 % 40 % 100 % 1022,9 hPa 0,0 l/m 4,4 km/h (1 Bft) 2 min 7,2 km/h (2 Bft)
17.04.2010 13:20 15,9 C 15,3 C 10,9 UV-I 7,1 C 44 % 40 % 100 % 1022,9 hPa 0,0 l/m 4,4 km/h (1 Bft) 2 min 20,1 km/h (4 Bft)
17.04.2010 13:22 16,1 C 15,5 C 10,9 UV-I 6,7 C 44 % 41 % 100 % 1022,9 hPa 0,0 l/m 4,4 km/h (1 Bft) 2 min 6,8 km/h (2 Bft)
17.04.2010 13:24 16,1 C 15,5 C 10,9 UV-I 6,6 C 44 % 40 % 100 % 1022,9 hPa 0,0 l/m 4,8 km/h (1 Bft) 2 min 4,0 km/h (1 Bft)
17.04.2010 13:26 16,1 C 15,6 C 10,9 UV-I 6,4 C 44 % 41 % 100 % 1022,9 hPa 0,0 l/m 4,8 km/h (1 Bft) 2 min 6,4 km/h (2 Bft)
17.04.2010 13:28 16,2 C 15,7 C 10,9 UV-I 6,5 C 44 % 39 % 100 % 1022,9 hPa 0,0 l/m 4,0 km/h (1 Bft) 2 min 0,0 km/h (0 Bft)
17.04.2010 13:30 16,2 C 15,9 C 11,1 UV-I 6,3 C 44 % 41 % 100 % 1022,9 hPa 0,0 l/m 4,0 km/h (1 Bft) 2 min 12,0 km/h (2 Bft)
17.04.2010 13:32 16,3 C 16,0 C 11,1 UV-I 6,1 C 44 % 39 % 100 % 1022,5 hPa 0,0 l/m 4,0 km/h (1 Bft) 2 min 9,2 km/h (2 Bft)
17.04.2010 13:34 16,2 C 16,0 C 11,1 UV-I 6,0 C 44 % 39 % 100 % 1022,5 hPa 0,0 l/m 4,0 km/h (1 Bft) 2 min 0,0 km/h (0 Bft)
17.04.2010 13:36 16,4 C 16,3 C 11,7 UV-I 5,8 C 44 % 39 % 100 % 1022,5 hPa 0,0 l/m 4,0 km/h (1 Bft) 2 min 10,0 km/h (2 Bft)
17.04.2010 13:38 16,4 C 16,3 C 11,7 UV-I 5,9 C 44 % 38 % 100 % 1022,5 hPa 0,0 l/m 3,6 km/h (1 Bft) 2 min 0,0 km/h (0 Bft)
17.04.2010 13:40 16,5 C 16,4 C 12,2 UV-I 6,0 C 44 % 38 % 100 % 1022,5 hPa 0,0 l/m 3,2 km/h (1 Bft) 2 min 0,0 km/h (0 Bft)
17.04.2010 13:42 16,5 C 16,5 C 12,2 UV-I 6,3 C 44 % 38 % 100 % 1022,5 hPa 0,0 l/m 2,4 km/h (1 Bft) 2 min 4,4 km/h (1 Bft)
17.04.2010 13:44 16,6 C 16,6 C 12,2 UV-I 6,4 C 44 % 38 % 100 % 1022,5 hPa 0,0 l/m 2,0 km/h (1 Bft) 2 min 5,2 km/h (1 Bft)
17.04.2010 13:46 16,6 C 16,6 C 12,8 UV-I 6,5 C 44 % 37 % 100 % 1022,5 hPa 0,0 l/m 2,4 km/h (1 Bft) 2 min 10,0 km/h (2 Bft)
17.04.2010 13:48 16,7 C 16,7 C 12,8 UV-I 6,4 C 44 % 38 % 100 % 1022,5 hPa 0,0 l/m 2,4 km/h (1 Bft) 2 min 4,4 km/h (1 Bft)
17.04.2010 13:50 16,8 C 16,8 C 7,4 UV-I 6,2 C 44 % 38 % 100 % 1022,5 hPa 0,0 l/m 2,0 km/h (1 Bft) 2 min 4,0 km/h (1 Bft)
17.04.2010 13:52 16,8 C 17,1 C 7,4 UV-I 6,0 C 44 % 38 % 100 % 1023,6 hPa 0,0 l/m 2,0 km/h (1 Bft) 2 min 0,0 km/h (0 Bft)
17.04.2010 13:54 16,9 C 17,0 C 7,4 UV-I 6,3 C 44 % 37 % 100 % 1023,6 hPa 0,0 l/m 2,0 km/h (1 Bft) 2 min 4,4 km/h (1 Bft)
17.04.2010 13:56 16,9 C 17,2 C 6,0 UV-I 6,3 C 43 % 36 % 100 % 1023,6 hPa 0,0 l/m 2,4 km/h (1 Bft) 2 min 0,0 km/h (0 Bft)
17.04.2010 13:58 17,0 C 17,2 C 6,0 UV-I 6,3 C 43 % 36 % 100 % 1023,6 hPa 0,0 l/m 2,0 km/h (1 Bft) 2 min 0,0 km/h (0 Bft)
17.04.2010 14:00 17,1 C 17,3 C 10,8 UV-I 6,3 C 43 % 37 % 100 % 1023,6 hPa 0,0 l/m 2,0 km/h (1 Bft) 2 min 0,0 km/h (0 Bft)
17.04.2010 14:02 17,1 C 17,3 C 10,8 UV-I 6,5 C 43 % 37 % 100 % 1023,6 hPa 0,0 l/m 2,8 km/h (1 Bft) 2 min 6,0 km/h (2 Bft)
17.04.2010 14:04 17,2 C 17,5 C 10,8 UV-I 6,3 C 43 % 35 % 100 % 1023,6 hPa 0,0 l/m 3,2 km/h (1 Bft) 2 min 7,2 km/h (2 Bft)
17.04.2010 14:06 17,2 C 17,5 C 12,1 UV-I 6,3 C 43 % 35 % 100 % 1023,6 hPa 0,0 l/m 3,2 km/h (1 Bft) 2 min 10,8 km/h (2 Bft)
17.04.2010 14:08 17,2 C 17,5 C 12,1 UV-I 6,0 C 43 % 34 % 100 % 1023,6 hPa 0,0 l/m 4,8 km/h (1 Bft) 2 min 13,7 km/h (3 Bft)
17.04.2010 14:10 17,4 C 17,6 C 11,9 UV-I 5,5 C 42 % 34 % 100 % 1023,6 hPa 0,0 l/m 5,2 km/h (1 Bft) 2 min 6,8 km/h (2 Bft)
17.04.2010 14:12 17,4 C 17,6 C 11,9 UV-I 5,3 C 42 % 34 % 100 % 1025,3 hPa 0,0 l/m 5,6 km/h (1 Bft) 2 min 5,2 km/h (1 Bft)
17.04.2010 14:14 17,5 C 17,6 C 11,9 UV-I 5,3 C 42 % 35 % 100 % 1025,3 hPa 0,0 l/m 5,2 km/h (1 Bft) 2 min 4,8 km/h (1 Bft)
17.04.2010 14:16 17,6 C 17,8 C 11,5 UV-I 5,3 C 42 % 36 % 100 % 1025,3 hPa 0,0 l/m 4,8 km/h (1 Bft) 2 min 4,4 km/h (1 Bft)
17.04.2010 14:18 17,6 C 17,9 C 11,5 UV-I 5,7 C 41 % 34 % 100 % 1025,3 hPa 0,0 l/m 3,6 km/h (1 Bft) 2 min 4,0 km/h (1 Bft)
17.04.2010 14:20 17,7 C 18,0 C 11,8 UV-I 5,8 C 41 % 34 % 100 % 1025,3 hPa 0,0 l/m 2,8 km/h (1 Bft) 2 min 5,2 km/h (1 Bft)
17.04.2010 14:23 17,8 C 18,3 C 11,8 UV-I 5,1 C 41 % 34 % 100 % 1025,3 hPa 0,0 l/m 4,0 km/h (1 Bft) 2 min 4,0 km/h (1 Bft)
17.04.2010 14:28 18,0 C 18,2 C 11,9 UV-I 5,2 C 40 % 33 % 100 % 1025,3 hPa 0,0 l/m 4,0 km/h (1 Bft) 2 min 5,6 km/h (1 Bft)
17.04.2010 14:30 18,0 C 18,3 C 11,3 UV-I 5,2 C 40 % 33 % 100 % 1025,3 hPa 0,0 l/m 4,4 km/h (1 Bft) 2 min 8,0 km/h (2 Bft)
17.04.2010 14:32 18,1 C 18,2 C 11,3 UV-I 5,4 C 40 % 33 % 100 % 1025,8 hPa 0,0 l/m 3,6 km/h (1 Bft) 2 min 0,0 km/h (0 Bft)
17.04.2010 14:34 18,1 C 18,1 C 11,3 UV-I 5,5 C 40 % 33 % 100 % 1025,8 hPa 0,0 l/m 2,4 km/h (1 Bft) 2 min 6,0 km/h (2 Bft)
17.04.2010 14:36 18,2 C 18,2 C 11,4 UV-I 5,6 C 40 % 33 % 100 % 1025,8 hPa 0,0 l/m 2,0 km/h (1 Bft) 2 min 0,0 km/h (0 Bft)
17.04.2010 14:38 18,3 C 18,3 C 11,4 UV-I 5,6 C 39 % 33 % 100 % 1025,8 hPa 0,0 l/m 2,4 km/h (1 Bft) 2 min 0,0 km/h (0 Bft)
17.04.2010 14:40 18,3 C 18,3 C 11,4 UV-I 5,6 C 39 % 33 % 100 % 1025,8 hPa 0,0 l/m 2,4 km/h (1 Bft) 2 min 0,0 km/h (0 Bft)
17.04.2010 14:42 18,3 C 18,3 C 11,4 UV-I 5,6 C 39 % 33 % 100 % 1025,8 hPa 0,0 l/m 2,4 km/h (1 Bft) 2 min 0,0 km/h (0 Bft)
17.04.2010 14:44 18,3 C 18,3 C 11,4 UV-I 5,6 C 39 % 33 % 100 % 1025,8 hPa 0,0 l/m 2,4 km/h (1 Bft) 2 min 0,0 km/h (0 Bft)
17.04.2010 14:46 18,3 C 18,3 C 11,4 UV-I 5,6 C 39 % 33 % 100 % 1025,8 hPa 0,0 l/m 2,4 km/h (1 Bft) 2 min 0,0 km/h (0 Bft)
17.04.2010 14:48 18,3 C 18,3 C 11,4 UV-I 5,6 C 39 % 33 % 100 % 1025,8 hPa 0,0 l/m 2,4 km/h (1 Bft) 2 min 0,0 km/h (0 Bft)
17.04.2010 14:50 18,6 C 18,3 C 11,4 UV-I 5,7 C 38 % 33 % 100 % 1025,8 hPa 0,0 l/m 4,4 km/h (1 Bft) 2 min 0,0 km/h (0 Bft)
17.04.2010 14:54 18,8 C 18,5 C 11,4 UV-I 5,8 C 38 % 33 % 100 % 1025,1 hPa 0,0 l/m 2,0 km/h (1 Bft) 2 min 6,0 km/h (2 Bft)
17.04.2010 14:56 18,8 C 18,6 C 12,2 UV-I 5,9 C 38 % 33 % 100 % 1025,1 hPa 0,0 l/m 2,4 km/h (1 Bft) 2 min 6,0 km/h (2 Bft)
17.04.2010 14:58 18,9 C 18,7 C 12,2 UV-I 6,0 C 38 % 33 % 100 % 1025,1 hPa 0,0 l/m 2,0 km/h (1 Bft) 2 min 0,0 km/h (0 Bft)
17.04.2010 15:00 18,9 C 18,7 C 12,7 UV-I 6,1 C 37 % 32 % 100 % 1025,1 hPa 0,0 l/m 2,0 km/h (1 Bft) 2 min 7,6 km/h (2 Bft)
17.04.2010 15:02 19,0 C 18,6 C 12,7 UV-I 6,3 C 37 % 32 % 100 % 1025,1 hPa 0,0 l/m 2,0 km/h (1 Bft) 2 min 5,2 km/h (1 Bft)
17.04.2010 15:04 19,0 C 18,7 C 12,7 UV-I 6,2 C 37 % 32 % 100 % 1025,1 hPa 0,0 l/m 2,4 km/h (1 Bft) 2 min 0,0 km/h (0 Bft)
17.04.2010 15:06 19,1 C 18,8 C 12,9 UV-I 6,1 C 37 % 32 % 100 % 1025,1 hPa 0,0 l/m 2,0 km/h (1 Bft) 2 min 4,8 km/h (1 Bft)
17.04.2010 15:08 19,2 C 18,8 C 12,9 UV-I 6,1 C 37 % 32 % 100 % 1025,1 hPa 0,0 l/m 2,4 km/h (1 Bft) 2 min 8,8 km/h (2 Bft)
17.04.2010 15:09 19,2 C 18,8 C 13,1 UV-I 6,2 C 37 % 32 % 100 % 1025,1 hPa 0,0 l/m 2,8 km/h (1 Bft) 1 min 12,0 km/h (2 Bft)
17.04.2010 15:10 19,3 C 18,9 C 13,1 UV-I 6,1 C 37 % 32 % 100 % 1025,1 hPa 0,0 l/m 2,8 km/h (1 Bft) 1 min 12,0 km/h (2 Bft)
17.04.2010 15:12 19,3 C 18,9 C 13,1 UV-I 6,0 C 37 % 32 % 100 % 1024,9 hPa 0,0 l/m 2,8 km/h (1 Bft) 2 min 4,4 km/h (1 Bft)
17.04.2010 15:14 19,2 C 18,8 C 13,1 UV-I 6,0 C 37 % 31 % 100 % 1024,9 hPa 0,0 l/m 2,8 km/h (1 Bft) 2 min 0,0 km/h (0 Bft)
17.04.2010 15:16 19,4 C 18,8 C 13,6 UV-I 5,9 C 36 % 32 % 100 % 1024,9 hPa 0,0 l/m 3,2 km/h (1 Bft) 2 min 5,2 km/h (1 Bft)
17.04.2010 15:18 19,4 C 18,9 C 13,6 UV-I 5,9 C 36 % 30 % 100 % 1024,9 hPa 0,0 l/m 3,6 km/h (1 Bft) 2 min 4,4 km/h (1 Bft)
17.04.2010 15:20 19,5 C 19,0 C 13,6 UV-I 5,9 C 36 % 31 % 100 % 1024,9 hPa 0,0 l/m 3,2 km/h (1 Bft) 2 min 0,0 km/h (0 Bft)
17.04.2010 15:22 19,6 C 19,0 C 13,6 UV-I 5,9 C 36 % 31 % 100 % 1024,9 hPa 0,0 l/m 2,4 km/h (1 Bft) 2 min 0,0 km/h (0 Bft)
17.04.2010 15:24 19,6 C 19,2 C 13,6 UV-I 5,9 C 36 % 30 % 100 % 1024,9 hPa 0,0 l/m 2,4 km/h (1 Bft) 2 min 11,2 km/h (2 Bft)
17.04.2010 15:26 19,7 C 19,1 C 13,9 UV-I 6,1 C 36 % 30 % 100 % 1024,9 hPa 0,0 l/m 2,4 km/h (1 Bft) 2 min 8,4 km/h (2 Bft)
17.04.2010 15:28 19,8 C 19,2 C 13,9 UV-I 6,0 C 36 % 30 % 100 % 1024,9 hPa 0,0 l/m 2,4 km/h (1 Bft) 2 min 0,0 km/h (0 Bft)
17.04.2010 15:30 19,8 C 19,2 C 13,9 UV-I 6,2 C 35 % 31 % 100 % 1024,9 hPa 0,0 l/m 2,4 km/h (1 Bft) 2 min 5,6 km/h (1 Bft)
17.04.2010 15:32 19,9 C 19,3 C 13,9 UV-I 6,1 C 35 % 30 % 100 % 1024,4 hPa 0,0 l/m 2,4 km/h (1 Bft) 2 min 0,0 km/h (0 Bft)
17.04.2010 15:34 20,0 C 19,3 C 13,9 UV-I 6,2 C 35 % 31 % 100 % 1024,4 hPa 0,0 l/m 2,8 km/h (1 Bft) 2 min 4,0 km/h (1 Bft)
17.04.2010 15:36 20,0 C 19,4 C 13,5 UV-I 6,2 C 35 % 31 % 100 % 1024,4 hPa 0,0 l/m 2,4 km/h (1 Bft) 2 min 6,0 km/h (2 Bft)
17.04.2010 15:38 20,1 C 19,5 C 13,5 UV-I 6,1 C 35 % 30 % 100 % 1024,4 hPa 0,0 l/m 2,8 km/h (1 Bft) 2 min 10,8 km/h (2 Bft)
17.04.2010 15:40 20,2 C 19,5 C 13,0 UV-I 5,9 C 35 % 30 % 100 % 1024,4 hPa 0,0 l/m 4,0 km/h (1 Bft) 2 min 5,6 km/h (1 Bft)
17.04.2010 15:42 20,2 C 19,5 C 13,0 UV-I 5,7 C 34 % 31 % 100 % 1024,4 hPa 0,0 l/m 4,0 km/h (1 Bft) 2 min 8,0 km/h (2 Bft)
17.04.2010 15:44 20,2 C 19,6 C 13,0 UV-I 5,5 C 34 % 31 % 100 % 1024,4 hPa 0,0 l/m 4,4 km/h (1 Bft) 2 min 8,0 km/h (2 Bft)
17.04.2010 15:47 20,5 C 19,6 C 13,2 UV-I 5,4 C 34 % 32 % 100 % 1024,4 hPa 0,0 l/m 4,8 km/h (1 Bft) 2 min 5,2 km/h (1 Bft)
17.04.2010 15:50 20,5 C 19,8 C 13,5 UV-I 5,2 C 34 % 32 % 100 % 1024,4 hPa 0,0 l/m 3,6 km/h (1 Bft) 2 min 0,0 km/h (0 Bft)
17.04.2010 15:52 20,6 C 19,9 C 13,5 UV-I 5,4 C 34 % 32 % 100 % 1025,1 hPa 0,0 l/m 3,2 km/h (1 Bft) 2 min 5,6 km/h (1 Bft)
17.04.2010 15:54 20,7 C 20,1 C 13,5 UV-I 5,4 C 34 % 31 % 100 % 1025,1 hPa 0,0 l/m 3,6 km/h (1 Bft) 2 min 8,8 km/h (2 Bft)
17.04.2010 15:56 20,8 C 20,1 C 13,9 UV-I 5,3 C 34 % 31 % 100 % 1025,1 hPa 0,0 l/m 2,8 km/h (1 Bft) 2 min 4,0 km/h (1 Bft)
17.04.2010 15:58 20,9 C 20,1 C 13,9 UV-I 5,3 C 34 % 31 % 100 % 1025,1 hPa 0,0 l/m 2,8 km/h (1 Bft) 2 min 7,6 km/h (2 Bft)
17.04.2010 16:00 21,0 C 20,2 C 14,0 UV-I 5,2 C 34 % 30 % 100 % 1025,1 hPa 0,0 l/m 2,8 km/h (1 Bft) 2 min 4,8 km/h (1 Bft)
17.04.2010 16:02 21,0 C 20,3 C 14,0 UV-I 5,1 C 34 % 31 % 100 % 1025,1 hPa 0,0 l/m 2,8 km/h (1 Bft) 2 min 7,2 km/h (2 Bft)
17.04.2010 16:04 21,1 C 20,3 C 14,0 UV-I 5,3 C 34 % 30 % 100 % 1025,1 hPa 0,0 l/m 2,8 km/h (1 Bft) 2 min 0,0 km/h (0 Bft)
17.04.2010 16:06 21,2 C 20,3 C 14,2 UV-I 5,4 C 34 % 30 % 100 % 1025,1 hPa 0,0 l/m 1,6 km/h (1 Bft) 2 min 4,0 km/h (1 Bft)
17.04.2010 16:08 21,2 C 20,4 C 14,2 UV-I 5,6 C 34 % 30 % 100 % 1025,1 hPa 0,0 l/m 1,6 km/h (1 Bft) 2 min 0,0 km/h (0 Bft)
17.04.2010 16:10 21,2 C 20,4 C 14,3 UV-I 6,0 C 33 % 29 % 100 % 1025,1 hPa 0,0 l/m 1,2 km/h (1 Bft) 2 min 4,0 km/h (1 Bft)
17.04.2010 16:12 21,4 C 20,5 C 14,3 UV-I 6,0 C 33 % 29 % 100 % 1025,6 hPa 0,0 l/m 1,6 km/h (1 Bft) 2 min 6,8 km/h (2 Bft)
17.04.2010 16:14 21,4 C 20,3 C 14,3 UV-I 6,3 C 33 % 29 % 100 % 1025,6 hPa 0,0 l/m 1,6 km/h (1 Bft) 2 min 5,2 km/h (1 Bft)
17.04.2010 16:16 21,5 C 20,4 C 13,7 UV-I 6,3 C 33 % 30 % 100 % 1025,6 hPa 0,0 l/m 1,6 km/h (1 Bft) 2 min 0,0 km/h (0 Bft)
17.04.2010 16:18 21,5 C 20,4 C 13,7 UV-I 6,5 C 33 % 30 % 100 % 1025,6 hPa 0,0 l/m 2,0 km/h (1 Bft) 2 min 4,8 km/h (1 Bft)
17.04.2010 16:20 21,6 C 20,5 C 13,3 UV-I 6,5 C 33 % 29 % 100 % 1025,6 hPa 0,0 l/m 2,4 km/h (1 Bft) 2 min 0,0 km/h (0 Bft)
17.04.2010 16:22 21,6 C 20,4 C 13,3 UV-I 6,5 C 33 % 30 % 100 % 1025,6 hPa 0,0 l/m 2,8 km/h (1 Bft) 2 min 10,8 km/h (2 Bft)
17.04.2010 16:24 21,7 C 20,7 C 13,3 UV-I 6,0 C 33 % 30 % 100 % 1025,6 hPa 0,0 l/m 3,6 km/h (1 Bft) 2 min 4,8 km/h (1 Bft)
17.04.2010 16:26 21,7 C 20,7 C 13,3 UV-I 5,7 C 33 % 30 % 100 % 1025,6 hPa 0,0 l/m 4,0 km/h (1 Bft) 2 min 10,8 km/h (2 Bft)
17.04.2010 16:28 21,8 C 20,9 C 13,3 UV-I 5,3 C 33 % 30 % 100 % 1025,6 hPa 0,0 l/m 5,2 km/h (1 Bft) 2 min 8,0 km/h (2 Bft)
17.04.2010 16:30 21,8 C 20,9 C 11,9 UV-I 4,9 C 33 % 30 % 100 % 1025,6 hPa 0,0 l/m 6,0 km/h (2 Bft) 2 min 13,7 km/h (3 Bft)
17.04.2010 16:32 21,9 C 20,9 C 11,9 UV-I 4,7 C 33 % 30 % 100 % 1025,2 hPa 0,0 l/m 7,2 km/h (2 Bft) 2 min 10,8 km/h (2 Bft)
17.04.2010 16:34 21,9 C 21,1 C 11,9 UV-I 4,3 C 33 % 30 % 100 % 1025,2 hPa 0,0 l/m 6,8 km/h (2 Bft) 2 min 11,2 km/h (2 Bft)
17.04.2010 16:36 21,9 C 21,2 C 10,8 UV-I 4,2 C 33 % 30 % 100 % 1025,2 hPa 0,0 l/m 6,4 km/h (2 Bft) 2 min 0,0 km/h (0 Bft)
17.04.2010 16:38 22,0 C 21,2 C 10,8 UV-I 4,5 C 33 % 28 % 100 % 1025,2 hPa 0,0 l/m 5,2 km/h (1 Bft) 2 min 0,0 km/h (0 Bft)
17.04.2010 16:40 22,0 C 21,2 C 10,8 UV-I 4,7 C 33 % 29 % 100 % 1025,2 hPa 0,0 l/m 4,8 km/h (1 Bft) 2 min 0,0 km/h (0 Bft)
17.04.2010 16:42 22,0 C 21,2 C 10,8 UV-I 5,1 C 33 % 29 % 100 % 1025,2 hPa 0,0 l/m 3,2 km/h (1 Bft) 2 min 6,0 km/h (2 Bft)
17.04.2010 16:44 22,1 C 21,2 C 10,8 UV-I 5,4 C 33 % 29 % 100 % 1025,2 hPa 0,0 l/m 2,0 km/h (1 Bft) 2 min 5,2 km/h (1 Bft)
17.04.2010 16:46 22,1 C 21,3 C 10,6 UV-I 5,5 C 32 % 29 % 100 % 1025,2 hPa 0,0 l/m 2,0 km/h (1 Bft) 2 min 5,2 km/h (1 Bft)
17.04.2010 16:48 22,2 C 21,3 C 10,6 UV-I 5,6 C 32 % 29 % 100 % 1025,2 hPa 0,0 l/m 2,0 km/h (1 Bft) 2 min 4,0 km/h (1 Bft)
17.04.2010 16:50 22,2 C 21,2 C 10,2 UV-I 5,8 C 32 % 28 % 100 % 1025,2 hPa 0,0 l/m 1,6 km/h (1 Bft) 2 min 0,0 km/h (0 Bft)
17.04.2010 16:52 22,2 C 21,2 C 10,2 UV-I 6,0 C 32 % 29 % 100 % 1024,2 hPa 0,0 l/m 1,2 km/h (1 Bft) 2 min 4,8 km/h (1 Bft)
17.04.2010 16:54 22,2 C 21,5 C 10,2 UV-I 5,7 C 32 % 29 % 100 % 1024,2 hPa 0,0 l/m 2,4 km/h (1 Bft) 2 min 4,0 km/h (1 Bft)
17.04.2010 16:56 22,2 C 21,4 C 9,2 UV-I 5,7 C 32 % 29 % 100 % 1024,2 hPa 0,0 l/m 1,6 km/h (1 Bft) 2 min 0,0 km/h (0 Bft)
17.04.2010 16:58 22,3 C 21,5 C 9,2 UV-I 5,7 C 32 % 29 % 100 % 1024,2 hPa 0,0 l/m 1,6 km/h (1 Bft) 2 min 0,0 km/h (0 Bft)
17.04.2010 17:00 22,2 C 21,6 C 8,1 UV-I 5,8 C 32 % 28 % 100 % 1024,2 hPa 0,0 l/m 2,0 km/h (1 Bft) 2 min 4,0 km/h (1 Bft)
17.04.2010 17:02 22,4 C 21,5 C 8,1 UV-I 5,9 C 32 % 27 % 100 % 1024,2 hPa 0,0 l/m 2,4 km/h (1 Bft) 2 min 7,6 km/h (2 Bft)
17.04.2010 17:04 22,4 C 21,5 C 8,1 UV-I 5,8 C 32 % 27 % 100 % 1024,2 hPa 0,0 l/m 2,0 km/h (1 Bft) 2 min 0,0 km/h (0 Bft)
17.04.2010 17:06 22,4 C 21,5 C 5,9 UV-I 5,6 C 32 % 27 % 100 % 1024,2 hPa 0,0 l/m 2,0 km/h (1 Bft) 2 min 0,0 km/h (0 Bft)
17.04.2010 17:08 22,4 C 21,5 C 5,9 UV-I 5,5 C 32 % 27 % 100 % 1024,2 hPa 0,0 l/m 2,4 km/h (1 Bft) 2 min 4,4 km/h (1 Bft)
17.04.2010 17:10 22,4 C 21,5 C 5,6 UV-I 5,4 C 32 % 27 % 100 % 1024,2 hPa 0,0 l/m 2,4 km/h (1 Bft) 2 min 6,4 km/h (2 Bft)
17.04.2010 17:12 22,4 C 21,5 C 5,6 UV-I 5,2 C 32 % 27 % 100 % 1023,6 hPa 0,0 l/m 2,0 km/h (1 Bft) 2 min 0,0 km/h (0 Bft)
17.04.2010 17:14 22,4 C 21,4 C 5,6 UV-I 5,3 C 32 % 27 % 100 % 1023,6 hPa 0,0 l/m 2,0 km/h (1 Bft) 2 min 0,0 km/h (0 Bft)
17.04.2010 17:16 22,4 C 21,5 C 3,8 UV-I 5,1 C 32 % 27 % 100 % 1023,6 hPa 0,0 l/m 1,6 km/h (1 Bft) 2 min 0,0 km/h (0 Bft)
17.04.2010 17:18 22,4 C 21,5 C 3,8 UV-I 5,2 C 32 % 27 % 100 % 1023,6 hPa 0,0 l/m 1,6 km/h (1 Bft) 2 min 0,0 km/h (0 Bft)
17.04.2010 17:20 22,4 C 21,4 C 3,5 UV-I 5,1 C 32 % 27 % 100 % 1023,6 hPa 0,0 l/m 1,6 km/h (1 Bft) 2 min 4,4 km/h (1 Bft)
17.04.2010 17:22 22,4 C 21,4 C 3,5 UV-I 5,1 C 32 % 27 % 100 % 1023,6 hPa 0,0 l/m 2,0 km/h (1 Bft) 2 min 10,0 km/h (2 Bft)
17.04.2010 17:24 22,4 C 21,5 C 3,5 UV-I 4,8 C 32 % 27 % 100 % 1023,6 hPa 0,0 l/m 2,0 km/h (1 Bft) 2 min 0,0 km/h (0 Bft)
17.04.2010 17:26 22,4 C 21,5 C 2,1 UV-I 4,6 C 32 % 27 % 100 % 1023,6 hPa 0,0 l/m 2,4 km/h (1 Bft) 2 min 0,0 km/h (0 Bft)
17.04.2010 17:28 22,2 C 21,6 C 2,1 UV-I 4,4 C 32 % 28 % 100 % 1023,6 hPa 0,0 l/m 3,2 km/h (1 Bft) 2 min 8,4 km/h (2 Bft)
17.04.2010 17:30 22,3 C 21,7 C 2,2 UV-I 4,2 C 32 % 28 % 100 % 1023,6 hPa 0,0 l/m 2,4 km/h (1 Bft) 2 min 0,0 km/h (0 Bft)
17.04.2010 17:32 22,2 C 21,6 C 2,2 UV-I 4,3 C 32 % 28 % 100 % 1023,1 hPa 0,0 l/m 2,8 km/h (1 Bft) 2 min 4,0 km/h (1 Bft)
17.04.2010 17:34 22,2 C 21,5 C 2,2 UV-I 4,4 C 32 % 27 % 100 % 1023,1 hPa 0,0 l/m 1,6 km/h (1 Bft) 2 min 0,0 km/h (0 Bft)
17.04.2010 17:36 22,1 C 21,5 C 2,2 UV-I 4,4 C 32 % 27 % 100 % 1023,1 hPa 0,0 l/m 1,2 km/h (1 Bft) 2 min 4,0 km/h (1 Bft)
17.04.2010 17:38 22,0 C 21,4 C 2,2 UV-I 4,6 C 32 % 27 % 100 % 1023,1 hPa 0,0 l/m 1,2 km/h (1 Bft) 2 min 4,8 km/h (1 Bft)
17.04.2010 17:40 22,0 C 21,5 C 1,8 UV-I 4,4 C 32 % 27 % 100 % 1023,1 hPa 0,0 l/m 1,6 km/h (1 Bft) 2 min 0,0 km/h (0 Bft)
17.04.2010 17:42 21,9 C 21,4 C 1,8 UV-I 4,5 C 32 % 27 % 100 % 1023,1 hPa 0,0 l/m 1,6 km/h (1 Bft) 2 min 4,0 km/h (1 Bft)
17.04.2010 17:44 21,8 C 21,4 C 1,8 UV-I 4,5 C 32 % 27 % 100 % 1023,1 hPa 0,0 l/m 1,2 km/h (1 Bft) 2 min 4,0 km/h (1 Bft)
17.04.2010 17:48 21,7 C 21,5 C 1,9 UV-I 4,9 C 33 % 28 % 100 % 1023,1 hPa 0,0 l/m 1,2 km/h (1 Bft) 2 min 8,8 km/h (2 Bft)
17.04.2010 17:50 21,7 C 21,5 C 1,7 UV-I 4,7 C 33 % 29 % 100 % 1023,1 hPa 0,0 l/m 1,6 km/h (1 Bft) 2 min 6,8 km/h (2 Bft)
17.04.2010 17:52 21,6 C 21,5 C 1,7 UV-I 4,2 C 33 % 29 % 100 % 1021,3 hPa 0,0 l/m 3,2 km/h (1 Bft) 2 min 7,2 km/h (2 Bft)
17.04.2010 17:54 21,6 C 21,4 C 1,7 UV-I 4,0 C 33 % 27 % 100 % 1021,3 hPa 0,0 l/m 3,6 km/h (1 Bft) 2 min 0,0 km/h (0 Bft)
17.04.2010 17:56 21,6 C 21,5 C 1,7 UV-I 3,8 C 33 % 27 % 100 % 1021,3 hPa 0,0 l/m 3,2 km/h (1 Bft) 2 min 0,0 km/h (0 Bft)
17.04.2010 17:58 21,5 C 21,3 C 1,7 UV-I 3,7 C 33 % 27 % 100 % 1021,3 hPa 0,0 l/m 3,2 km/h (1 Bft) 2 min 0,0 km/h (0 Bft)
17.04.2010 18:00 21,4 C 21,2 C 1,5 UV-I 3,6 C 33 % 27 % 100 % 1021,3 hPa 0,0 l/m 2,4 km/h (1 Bft) 2 min 0,0 km/h (0 Bft)
17.04.2010 18:02 21,4 C 21,0 C 1,5 UV-I 3,6 C 33 % 27 % 100 % 1021,3 hPa 0,0 l/m 1,2 km/h (1 Bft) 2 min 0,0 km/h (0 Bft)
17.04.2010 18:04 21,2 C 21,1 C 1,5 UV-I 3,0 C 33 % 27 % 86 % 1021,3 hPa 0,0 l/m 0,8 km/h (0 Bft) 2 min 5,6 km/h (1 Bft)
17.04.2010 18:06 21,2 C 20,8 C 0,9 UV-I 2,8 C 33 % 26 % 80 % 1021,3 hPa 0,0 l/m 2,0 km/h (1 Bft) 0 min 8,8 km/h (2 Bft)
17.04.2010 18:08 21,2 C 20,7 C 0,9 UV-I 2,7 C 33 % 26 % 77 % 1021,3 hPa 0,0 l/m 3,2 km/h (1 Bft) 0 min 6,4 km/h (2 Bft)
17.04.2010 18:10 21,2 C 20,5 C 1,1 UV-I 2,7 C 34 % 27 % 77 % 1021,3 hPa 0,0 l/m 3,6 km/h (1 Bft) 0 min 6,8 km/h (2 Bft)
17.04.2010 18:12 21,1 C 20,4 C 1,1 UV-I 2,7 C 34 % 27 % 77 % 1020,4 hPa 0,0 l/m 4,4 km/h (1 Bft) 0 min 7,6 km/h (2 Bft)
17.04.2010 18:14 21,0 C 20,3 C 1,1 UV-I 2,3 C 34 % 27 % 66 % 1020,4 hPa 0,0 l/m 4,4 km/h (1 Bft) 0 min 0,0 km/h (0 Bft)
17.04.2010 18:16 21,0 C 20,2 C 1,0 UV-I 2,2 C 34 % 27 % 63 % 1020,4 hPa 0,0 l/m 4,0 km/h (1 Bft) 0 min 7,6 km/h (2 Bft)
17.04.2010 18:18 21,0 C 20,1 C 1,0 UV-I 2,2 C 34 % 27 % 63 % 1020,4 hPa 0,0 l/m 3,6 km/h (1 Bft) 0 min 4,0 km/h (1 Bft)
17.04.2010 18:20 20,9 C 19,9 C 1,0 UV-I 2,0 C 34 % 27 % 57 % 1020,4 hPa 0,0 l/m 2,8 km/h (1 Bft) 0 min 0,0 km/h (0 Bft)
17.04.2010 18:22 20,9 C 19,9 C 1,0 UV-I 1,6 C 34 % 27 % 46 % 1020,4 hPa 0,0 l/m 2,0 km/h (1 Bft) 0 min 0,0 km/h (0 Bft)
17.04.2010 18:24 20,9 C 19,8 C 1,0 UV-I 1,4 C 35 % 27 % 40 % 1020,4 hPa 0,0 l/m 1,2 km/h (1 Bft) 0 min 0,0 km/h (0 Bft)
17.04.2010 18:26 20,9 C 19,6 C 0,8 UV-I 1,3 C 35 % 27 % 37 % 1020,4 hPa 0,0 l/m 1,6 km/h (1 Bft) 0 min 0,0 km/h (0 Bft)
17.04.2010 18:28 20,8 C 19,6 C 0,8 UV-I 1,0 C 35 % 27 % 29 % 1020,4 hPa 0,0 l/m 0,8 km/h (0 Bft) 0 min 0,0 km/h (0 Bft)
17.04.2010 18:30 20,8 C 19,5 C 0,9 UV-I 0,9 C 35 % 28 % 26 % 1020,4 hPa 0,0 l/m 0,4 km/h (0 Bft) 0 min 0,0 km/h (0 Bft)
17.04.2010 18:32 20,8 C 19,4 C 0,9 UV-I 0,7 C 35 % 28 % 20 % 1020,2 hPa 0,0 l/m 0,4 km/h (0 Bft) 0 min 0,0 km/h (0 Bft)
17.04.2010 18:34 20,8 C 19,4 C 0,9 UV-I 0,6 C 35 % 28 % 17 % 1020,2 hPa 0,0 l/m 0,4 km/h (0 Bft) 0 min 0,0 km/h (0 Bft)
17.04.2010 18:36 20,8 C 19,3 C 0,6 UV-I 0,4 C 35 % 28 % 11 % 1020,2 hPa 0,0 l/m 0,4 km/h (0 Bft) 0 min 0,0 km/h (0 Bft)
17.04.2010 18:38 20,8 C 19,3 C 0,6 UV-I 0,1 C 35 % 29 % 3 % 1020,2 hPa 0,0 l/m 0,0 km/h (0 Bft) 0 min 0,0 km/h (0 Bft)
17.04.2010 18:40 20,8 C 19,2 C 0,7 UV-I 0,0 C 35 % 29 % 0 % 1020,2 hPa 0,0 l/m 0,0 km/h (0 Bft) 0 min 0,0 km/h (0 Bft)
17.04.2010 18:42 20,8 C 19,2 C 0,7 UV-I 0,0 C 35 % 29 % 0 % 1020,2 hPa 0,0 l/m 0,0 km/h (0 Bft) 0 min 4,0 km/h (1 Bft)
17.04.2010 18:44 20,8 C 19,1 C 0,7 UV-I 0,0 C 35 % 29 % 0 % 1020,2 hPa 0,0 l/m 0,4 km/h (0 Bft) 0 min 0,0 km/h (0 Bft)
17.04.2010 18:46 20,7 C 19,0 C 0,5 UV-I 0,0 C 35 % 28 % 0 % 1020,2 hPa 0,0 l/m 0,4 km/h (0 Bft) 0 min 0,0 km/h (0 Bft)
17.04.2010 18:48 20,7 C 18,9 C 0,5 UV-I 0,0 C 35 % 30 % 0 % 1020,2 hPa 0,0 l/m 0,4 km/h (0 Bft) 0 min 0,0 km/h (0 Bft)
17.04.2010 18:50 20,7 C 18,9 C 0,4 UV-I 0,0 C 35 % 30 % 0 % 1020,2 hPa 0,0 l/m 0,4 km/h (0 Bft) 0 min 0,0 km/h (0 Bft)
17.04.2010 18:52 20,7 C 18,9 C 0,4 UV-I 0,0 C 35 % 30 % 0 % 1020,3 hPa 0,0 l/m 0,4 km/h (0 Bft) 0 min 0,0 km/h (0 Bft)
17.04.2010 18:54 20,7 C 18,7 C 0,4 UV-I 0,0 C 35 % 30 % 0 % 1020,3 hPa 0,0 l/m 0,4 km/h (0 Bft) 0 min 0,0 km/h (0 Bft)
17.04.2010 18:56 20,6 C 18,6 C 0,0 UV-I 0,0 C 35 % 30 % 0 % 1020,3 hPa 0,0 l/m 0,4 km/h (0 Bft) 0 min 6,4 km/h (2 Bft)
17.04.2010 18:58 20,6 C 18,7 C 0,0 UV-I 0,0 C 35 % 30 % 0 % 1020,3 hPa 0,0 l/m 0,8 km/h (0 Bft) 0 min 0,0 km/h (0 Bft)
17.04.2010 19:00 20,6 C 18,5 C 0,4 UV-I 0,0 C 35 % 30 % 0 % 1020,3 hPa 0,0 l/m 0,8 km/h (0 Bft) 0 min 0,0 km/h (0 Bft)
17.04.2010 19:02 20,6 C 18,4 C 0,4 UV-I 0,0 C 35 % 30 % 0 % 1020,3 hPa 0,0 l/m 0,8 km/h (0 Bft) 0 min 0,0 km/h (0 Bft)
17.04.2010 19:04 20,6 C 18,4 C 0,4 UV-I 0,0 C 35 % 30 % 0 % 1020,3 hPa 0,0 l/m 0,8 km/h (0 Bft) 0 min 0,0 km/h (0 Bft)
17.04.2010 19:06 20,5 C 18,3 C 0,3 UV-I 0,0 C 35 % 30 % 0 % 1020,3 hPa 0,0 l/m 0,4 km/h (0 Bft) 0 min 0,0 km/h (0 Bft)
17.04.2010 19:08 20,5 C 18,3 C 0,3 UV-I 0,0 C 35 % 30 % 0 % 1020,3 hPa 0,0 l/m 0,0 km/h (0 Bft) 0 min 0,0 km/h (0 Bft)
17.04.2010 19:10 20,5 C 18,3 C 0,3 UV-I 0,0 C 35 % 30 % 0 % 1020,3 hPa 0,0 l/m 0,4 km/h (0 Bft) 0 min 6,8 km/h (2 Bft)
17.04.2010 19:14 20,4 C 18,1 C 0,3 UV-I 0,0 C 35 % 31 % 0 % 1019,4 hPa 0,0 l/m 0,8 km/h (0 Bft) 0 min 0,0 km/h (0 Bft)
17.04.2010 19:16 20,4 C 18,0 C 0,2 UV-I 0,0 C 35 % 30 % 0 % 1019,4 hPa 0,0 l/m 1,6 km/h (1 Bft) 0 min 4,0 km/h (1 Bft)
17.04.2010 19:18 20,4 C 18,0 C 0,2 UV-I 0,0 C 35 % 30 % 0 % 1019,4 hPa 0,0 l/m 1,6 km/h (1 Bft) 0 min 0,0 km/h (0 Bft)
17.04.2010 19:20 20,4 C 18,0 C 0,3 UV-I 0,0 C 35 % 31 % 0 % 1019,4 hPa 0,0 l/m 1,6 km/h (1 Bft) 0 min 0,0 km/h (0 Bft)
17.04.2010 19:22 20,4 C 17,9 C 0,3 UV-I 0,0 C 35 % 31 % 0 % 1019,4 hPa 0,0 l/m 0,8 km/h (0 Bft) 0 min 0,0 km/h (0 Bft)
17.04.2010 19:24 20,4 C 17,9 C 0,3 UV-I 0,0 C 35 % 31 % 0 % 1019,4 hPa 0,0 l/m 0,8 km/h (0 Bft) 0 min 0,0 km/h (0 Bft)
17.04.2010 19:26 20,3 C 17,8 C 0,2 UV-I 0,0 C 36 % 31 % 0 % 1019,4 hPa 0,0 l/m 0,8 km/h (0 Bft) 0 min 0,0 km/h (0 Bft)
17.04.2010 19:28 20,3 C 17,7 C 0,2 UV-I 0,0 C 35 % 31 % 0 % 1019,4 hPa 0,0 l/m 0,4 km/h (0 Bft) 0 min 0,0 km/h (0 Bft)
17.04.2010 19:30 20,3 C 17,6 C 0,1 UV-I 0,0 C 36 % 32 % 0 % 1019,4 hPa 0,0 l/m 0,4 km/h (0 Bft) 0 min 0,0 km/h (0 Bft)
17.04.2010 19:32 20,2 C 17,6 C 0,1 UV-I 0,0 C 36 % 32 % 0 % 1019,2 hPa 0,0 l/m 0,4 km/h (0 Bft) 0 min 0,0 km/h (0 Bft)
17.04.2010 19:34 20,2 C 17,5 C 0,1 UV-I 0,0 C 36 % 32 % 0 % 1019,2 hPa 0,0 l/m 0,4 km/h (0 Bft) 0 min 0,0 km/h (0 Bft)
17.04.2010 19:36 20,2 C 17,5 C 0,0 UV-I 0,0 C 36 % 33 % 0 % 1019,2 hPa 0,0 l/m 0,0 km/h (0 Bft) 0 min 0,0 km/h (0 Bft)
17.04.2010 19:38 20,2 C 17,3 C 0,0 UV-I 0,2 C 36 % 33 % 6 % 1019,2 hPa 0,0 l/m 0,0 km/h (0 Bft) 0 min 0,0 km/h (0 Bft)
17.04.2010 19:40 20,1 C 17,3 C 0,0 UV-I 0,1 C 36 % 33 % 3 % 1019,2 hPa 0,0 l/m 0,0 km/h (0 Bft) 0 min 0,0 km/h (0 Bft)
17.04.2010 19:42 20,1 C 17,3 C 0,0 UV-I 0,0 C 36 % 33 % 0 % 1019,2 hPa 0,0 l/m 0,0 km/h (0 Bft) 0 min 0,0 km/h (0 Bft)
17.04.2010 19:44 20,1 C 17,1 C 0,0 UV-I 0,0 C 36 % 33 % 0 % 1019,2 hPa 0,0 l/m 0,0 km/h (0 Bft) 0 min 0,0 km/h (0 Bft)
17.04.2010 19:46 20,1 C 17,1 C 0,1 UV-I 0,0 C 36 % 33 % 0 % 1019,2 hPa 0,0 l/m 0,0 km/h (0 Bft) 0 min 0,0 km/h (0 Bft)
17.04.2010 19:48 20,0 C 17,0 C 0,1 UV-I 0,0 C 36 % 34 % 0 % 1019,2 hPa 0,0 l/m 0,0 km/h (0 Bft) 0 min 0,0 km/h (0 Bft)
17.04.2010 19:50 20,0 C 16,8 C 0,1 UV-I 0,0 C 36 % 33 % 0 % 1019,2 hPa 0,0 l/m 0,0 km/h (0 Bft) 0 min 0,0 km/h (0 Bft)
17.04.2010 19:52 20,0 C 16,9 C 0,1 UV-I 0,0 C 36 % 33 % 0 % 1018,7 hPa 0,0 l/m 0,0 km/h (0 Bft) 0 min 0,0 km/h (0 Bft)
17.04.2010 19:54 20,0 C 16,7 C 0,1 UV-I 0,0 C 36 % 34 % 0 % 1018,7 hPa 0,0 l/m 0,0 km/h (0 Bft) 0 min 0,0 km/h (0 Bft)
17.04.2010 19:56 20,0 C 16,7 C 0,0 UV-I 0,0 C 36 % 35 % 0 % 1018,7 hPa 0,0 l/m 0,0 km/h (0 Bft) 0 min 0,0 km/h (0 Bft)
17.04.2010 19:58 19,9 C 16,7 C 0,0 UV-I 0,0 C 36 % 35 % 0 % 1018,7 hPa 0,0 l/m 0,0 km/h (0 Bft) 0 min 0,0 km/h (0 Bft)
17.04.2010 20:00 19,9 C 16,5 C 0,0 UV-I 0,0 C 36 % 34 % 0 % 1018,7 hPa 0,0 l/m 0,0 km/h (0 Bft) 0 min 0,0 km/h (0 Bft)
17.04.2010 20:02 19,9 C 16,4 C 0,0 UV-I 0,0 C 36 % 35 % 0 % 1018,7 hPa 0,0 l/m 0,0 km/h (0 Bft) 0 min 0,0 km/h (0 Bft)
17.04.2010 20:04 19,9 C 16,3 C 0,0 UV-I 0,0 C 36 % 35 % 0 % 1018,7 hPa 0,0 l/m 0,0 km/h (0 Bft) 0 min 0,0 km/h (0 Bft)
17.04.2010 20:06 19,8 C 16,3 C 0,0 UV-I 0,0 C 36 % 36 % 0 % 1018,7 hPa 0,0 l/m 0,0 km/h (0 Bft) 0 min 0,0 km/h (0 Bft)
17.04.2010 20:08 19,8 C 16,3 C 0,0 UV-I 0,0 C 36 % 36 % 0 % 1018,7 hPa 0,0 l/m 0,0 km/h (0 Bft) 0 min 0,0 km/h (0 Bft)
17.04.2010 20:10 19,8 C 16,1 C 0,0 UV-I 0,0 C 36 % 36 % 0 % 1018,7 hPa 0,0 l/m 0,0 km/h (0 Bft) 0 min 4,4 km/h (1 Bft)
17.04.2010 20:12 19,8 C 16,0 C 0,0 UV-I 0,0 C 36 % 35 % 0 % 1018,3 hPa 0,0 l/m 1,2 km/h (1 Bft) 0 min 5,6 km/h (1 Bft)
17.04.2010 20:14 19,7 C 16,0 C 0,0 UV-I 0,0 C 36 % 35 % 0 % 1018,3 hPa 0,0 l/m 1,6 km/h (1 Bft) 0 min 4,0 km/h (1 Bft)
17.04.2010 20:16 19,6 C 15,9 C 0,0 UV-I 0,0 C 36 % 35 % 0 % 1018,3 hPa 0,0 l/m 1,6 km/h (1 Bft) 0 min 0,0 km/h (0 Bft)
17.04.2010 20:18 19,6 C 15,9 C 0,0 UV-I 0,0 C 36 % 36 % 0 % 1018,3 hPa 0,0 l/m 1,6 km/h (1 Bft) 0 min 0,0 km/h (0 Bft)
17.04.2010 20:20 19,6 C 15,8 C 0,0 UV-I 0,0 C 36 % 36 % 0 % 1018,3 hPa 0,0 l/m 1,6 km/h (1 Bft) 0 min 0,0 km/h (0 Bft)
17.04.2010 20:22 19,6 C 15,7 C 0,0 UV-I 0,0 C 36 % 37 % 0 % 1018,3 hPa 0,0 l/m 1,2 km/h (1 Bft) 0 min 0,0 km/h (0 Bft)
17.04.2010 20:24 19,6 C 15,6 C 0,0 UV-I 0,0 C 36 % 37 % 0 % 1018,3 hPa 0,0 l/m 0,4 km/h (0 Bft) 0 min 0,0 km/h (0 Bft)
17.04.2010 20:26 19,5 C 15,6 C 0,0 UV-I 0,0 C 37 % 38 % 0 % 1018,3 hPa 0,0 l/m 0,0 km/h (0 Bft) 0 min 0,0 km/h (0 Bft)
17.04.2010 20:30 19,4 C 15,4 C 0,0 UV-I 0,0 C 37 % 40 % 0 % 1018,3 hPa 0,0 l/m 0,0 km/h (0 Bft) 0 min 0,0 km/h (0 Bft)
17.04.2010 20:32 19,4 C 15,3 C 0,0 UV-I 0,0 C 37 % 40 % 0 % 1018,3 hPa 0,0 l/m 0,0 km/h (0 Bft) 0 min 0,0 km/h (0 Bft)
17.04.2010 20:34 19,4 C 15,2 C 0,0 UV-I 0,0 C 37 % 40 % 0 % 1018,3 hPa 0,0 l/m 0,0 km/h (0 Bft) 0 min 0,0 km/h (0 Bft)
17.04.2010 20:36 19,2 C 15,1 C 0,0 UV-I 0,0 C 37 % 41 % 0 % 1018,3 hPa 0,0 l/m 0,0 km/h (0 Bft) 0 min 0,0 km/h (0 Bft)
17.04.2010 20:38 19,3 C 15,1 C 0,0 UV-I 0,0 C 37 % 41 % 0 % 1018,3 hPa 0,0 l/m 0,0 km/h (0 Bft) 0 min 0,0 km/h (0 Bft)
17.04.2010 20:40 19,2 C 14,9 C 0,0 UV-I 0,0 C 37 % 41 % 0 % 1018,3 hPa 0,0 l/m 0,0 km/h (0 Bft) 0 min 0,0 km/h (0 Bft)
17.04.2010 20:42 19,2 C 14,8 C 0,0 UV-I 0,0 C 37 % 42 % 0 % 1018,3 hPa 0,0 l/m 0,0 km/h (0 Bft) 0 min 0,0 km/h (0 Bft)
17.04.2010 20:44 19,2 C 14,7 C 0,0 UV-I 0,0 C 37 % 42 % 0 % 1018,3 hPa 0,0 l/m 0,0 km/h (0 Bft) 0 min 0,0 km/h (0 Bft)
17.04.2010 20:46 19,2 C 14,7 C 0,0 UV-I 0,0 C 37 % 42 % 0 % 1018,3 hPa 0,0 l/m 0,0 km/h (0 Bft) 0 min 0,0 km/h (0 Bft)
17.04.2010 20:48 19,2 C 14,5 C 0,0 UV-I 0,0 C 37 % 42 % 0 % 1018,3 hPa 0,0 l/m 0,0 km/h (0 Bft) 0 min 0,0 km/h (0 Bft)
17.04.2010 20:50 19,1 C 14,4 C 0,0 UV-I 0,0 C 37 % 42 % 0 % 1018,3 hPa 0,0 l/m 0,0 km/h (0 Bft) 0 min 0,0 km/h (0 Bft)
17.04.2010 20:54 19,1 C 14,3 C 0,0 UV-I 0,0 C 37 % 43 % 0 % 1018,6 hPa 0,0 l/m 0,0 km/h (0 Bft) 0 min 0,0 km/h (0 Bft)
17.04.2010 20:56 19,0 C 14,1 C 0,0 UV-I 0,0 C 37 % 43 % 0 % 1018,6 hPa 0,0 l/m 0,0 km/h (0 Bft) 0 min 0,0 km/h (0 Bft)
17.04.2010 20:58 19,0 C 14,0 C 0,0 UV-I 0,0 C 37 % 44 % 0 % 1018,6 hPa 0,0 l/m 0,0 km/h (0 Bft) 0 min 0,0 km/h (0 Bft)
17.04.2010 21:00 19,0 C 13,9 C 0,0 UV-I 0,0 C 38 % 44 % 0 % 1018,6 hPa 0,0 l/m 0,0 km/h (0 Bft) 0 min 0,0 km/h (0 Bft)
17.04.2010 21:02 19,0 C 13,9 C 0,0 UV-I 0,0 C 38 % 44 % 0 % 1018,6 hPa 0,0 l/m 0,0 km/h (0 Bft) 0 min 0,0 km/h (0 Bft)
17.04.2010 21:04 18,9 C 13,8 C 0,0 UV-I 0,0 C 38 % 44 % 0 % 1018,6 hPa 0,0 l/m 0,0 km/h (0 Bft) 0 min 0,0 km/h (0 Bft)
17.04.2010 21:06 18,9 C 13,6 C 0,0 UV-I 0,0 C 38 % 44 % 0 % 1018,6 hPa 0,0 l/m 0,0 km/h (0 Bft) 0 min 0,0 km/h (0 Bft)
17.04.2010 21:08 18,9 C 13,5 C 0,0 UV-I 0,0 C 38 % 45 % 0 % 1018,6 hPa 0,0 l/m 0,0 km/h (0 Bft) 0 min 0,0 km/h (0 Bft)
17.04.2010 21:10 18,8 C 13,4 C 0,0 UV-I 0,0 C 38 % 45 % 0 % 1018,6 hPa 0,0 l/m 0,0 km/h (0 Bft) 0 min 0,0 km/h (0 Bft)
17.04.2010 21:12 18,8 C 13,5 C 0,0 UV-I 0,0 C 38 % 46 % 0 % 1018,2 hPa 0,0 l/m 0,0 km/h (0 Bft) 0 min 0,0 km/h (0 Bft)
17.04.2010 21:14 18,8 C 13,3 C 0,0 UV-I 0,0 C 38 % 46 % 0 % 1018,2 hPa 0,0 l/m 0,0 km/h (0 Bft) 0 min 0,0 km/h (0 Bft)
17.04.2010 21:16 18,8 C 13,2 C 0,0 UV-I 0,0 C 38 % 46 % 0 % 1018,2 hPa 0,0 l/m 0,0 km/h (0 Bft) 0 min 0,0 km/h (0 Bft)
17.04.2010 21:18 18,8 C 13,1 C 0,0 UV-I 0,0 C 38 % 46 % 0 % 1018,2 hPa 0,0 l/m 0,0 km/h (0 Bft) 0 min 0,0 km/h (0 Bft)
17.04.2010 21:20 18,8 C 13,0 C 0,0 UV-I 0,0 C 38 % 47 % 0 % 1018,2 hPa 0,0 l/m 0,0 km/h (0 Bft) 0 min 0,0 km/h (0 Bft)
17.04.2010 21:22 18,7 C 12,9 C 0,0 UV-I 0,0 C 38 % 47 % 0 % 1018,2 hPa 0,0 l/m 0,0 km/h (0 Bft) 0 min 0,0 km/h (0 Bft)
17.04.2010 21:24 18,7 C 12,8 C 0,0 UV-I 0,0 C 38 % 47 % 0 % 1018,2 hPa 0,0 l/m 0,0 km/h (0 Bft) 0 min 0,0 km/h (0 Bft)
17.04.2010 21:26 18,7 C 12,9 C 0,0 UV-I 0,0 C 38 % 48 % 0 % 1018,2 hPa 0,0 l/m 0,0 km/h (0 Bft) 0 min 0,0 km/h (0 Bft)
17.04.2010 21:28 18,6 C 12,7 C 0,0 UV-I 0,0 C 38 % 49 % 0 % 1018,2 hPa 0,0 l/m 0,0 km/h (0 Bft) 0 min 0,0 km/h (0 Bft)
17.04.2010 21:30 18,6 C 12,7 C 0,0 UV-I 0,0 C 38 % 49 % 0 % 1018,2 hPa 0,0 l/m 0,0 km/h (0 Bft) 0 min 0,0 km/h (0 Bft)
17.04.2010 21:32 18,6 C 12,5 C 0,0 UV-I 0,0 C 38 % 49 % 0 % 1018,6 hPa 0,0 l/m 0,0 km/h (0 Bft) 0 min 0,0 km/h (0 Bft)
17.04.2010 21:34 18,6 C 12,5 C 0,0 UV-I 0,0 C 39 % 50 % 0 % 1018,6 hPa 0,0 l/m 0,0 km/h (0 Bft) 0 min 0,0 km/h (0 Bft)
17.04.2010 21:36 18,6 C 12,4 C 0,0 UV-I 0,0 C 38 % 51 % 0 % 1018,6 hPa 0,0 l/m 0,0 km/h (0 Bft) 0 min 0,0 km/h (0 Bft)
17.04.2010 21:38 18,6 C 12,3 C 0,0 UV-I 0,0 C 39 % 51 % 0 % 1018,6 hPa 0,0 l/m 0,0 km/h (0 Bft) 0 min 0,0 km/h (0 Bft)
17.04.2010 21:40 18,5 C 12,3 C 0,0 UV-I 0,0 C 39 % 52 % 0 % 1018,6 hPa 0,0 l/m 0,0 km/h (0 Bft) 0 min 0,0 km/h (0 Bft)
17.04.2010 21:42 18,5 C 12,2 C 0,0 UV-I 0,0 C 39 % 51 % 0 % 1018,6 hPa 0,0 l/m 0,0 km/h (0 Bft) 0 min 0,0 km/h (0 Bft)
17.04.2010 21:44 18,5 C 12,1 C 0,0 UV-I 0,0 C 39 % 52 % 0 % 1018,6 hPa 0,0 l/m 0,0 km/h (0 Bft) 0 min 0,0 km/h (0 Bft)
17.04.2010 21:46 18,4 C 12,0 C 0,0 UV-I 0,0 C 39 % 53 % 0 % 1018,6 hPa 0,0 l/m 0,0 km/h (0 Bft) 0 min 0,0 km/h (0 Bft)
17.04.2010 21:48 18,4 C 11,9 C 0,0 UV-I 0,0 C 39 % 53 % 0 % 1018,6 hPa 0,0 l/m 0,0 km/h (0 Bft) 0 min 0,0 km/h (0 Bft)
17.04.2010 21:50 18,4 C 11,9 C 0,0 UV-I 0,0 C 39 % 53 % 0 % 1018,6 hPa 0,0 l/m 0,0 km/h (0 Bft) 0 min 0,0 km/h (0 Bft)
17.04.2010 21:54 18,4 C 11,7 C 0,0 UV-I 0,0 C 39 % 54 % 0 % 1018,1 hPa 0,0 l/m 0,0 km/h (0 Bft) 0 min 0,0 km/h (0 Bft)
17.04.2010 21:56 18,4 C 11,7 C 0,0 UV-I 0,0 C 39 % 54 % 0 % 1018,1 hPa 0,0 l/m 0,0 km/h (0 Bft) 0 min 0,0 km/h (0 Bft)
17.04.2010 21:58 18,4 C 11,5 C 0,0 UV-I 0,0 C 39 % 54 % 0 % 1018,1 hPa 0,0 l/m 0,0 km/h (0 Bft) 0 min 0,0 km/h (0 Bft)
17.04.2010 22:00 18,4 C 11,4 C 0,0 UV-I 0,0 C 39 % 54 % 0 % 1018,1 hPa 0,0 l/m 0,0 km/h (0 Bft) 0 min 0,0 km/h (0 Bft)
17.04.2010 22:02 18,2 C 11,4 C 0,0 UV-I 0,0 C 39 % 55 % 0 % 1018,1 hPa 0,0 l/m 0,0 km/h (0 Bft) 0 min 0,0 km/h (0 Bft)
17.04.2010 22:04 18,3 C 11,3 C 0,0 UV-I 0,0 C 39 % 55 % 0 % 1018,1 hPa 0,0 l/m 0,0 km/h (0 Bft) 0 min 0,0 km/h (0 Bft)
17.04.2010 22:06 18,3 C 11,2 C 0,0 UV-I 0,0 C 39 % 55 % 0 % 1018,1 hPa 0,0 l/m 0,0 km/h (0 Bft) 0 min 0,0 km/h (0 Bft)
17.04.2010 22:08 18,3 C 11,1 C 0,0 UV-I 0,0 C 39 % 56 % 0 % 1018,1 hPa 0,0 l/m 0,0 km/h (0 Bft) 0 min 0,0 km/h (0 Bft)
17.04.2010 22:10 18,3 C 11,1 C 0,0 UV-I 0,0 C 39 % 56 % 0 % 1018,1 hPa 0,0 l/m 0,0 km/h (0 Bft) 0 min 0,0 km/h (0 Bft)
17.04.2010 22:12 18,2 C 11,0 C 0,0 UV-I 0,0 C 39 % 56 % 0 % 1018,4 hPa 0,0 l/m 0,0 km/h (0 Bft) 0 min 0,0 km/h (0 Bft)
17.04.2010 22:14 18,2 C 10,9 C 0,0 UV-I 0,0 C 40 % 56 % 0 % 1018,4 hPa 0,0 l/m 0,0 km/h (0 Bft) 0 min 0,0 km/h (0 Bft)
17.04.2010 22:16 18,2 C 10,8 C 0,0 UV-I 0,0 C 39 % 56 % 0 % 1018,4 hPa 0,0 l/m 0,0 km/h (0 Bft) 0 min 0,0 km/h (0 Bft)
17.04.2010 22:18 18,2 C 10,7 C 0,0 UV-I 0,0 C 40 % 56 % 0 % 1018,4 hPa 0,0 l/m 0,0 km/h (0 Bft) 0 min 0,0 km/h (0 Bft)
17.04.2010 22:20 18,2 C 10,7 C 0,0 UV-I 0,0 C 40 % 56 % 0 % 1018,4 hPa 0,0 l/m 0,0 km/h (0 Bft) 0 min 0,0 km/h (0 Bft)
17.04.2010 22:22 18,2 C 10,7 C 0,0 UV-I 0,0 C 40 % 56 % 0 % 1018,4 hPa 0,0 l/m 0,0 km/h (0 Bft) 0 min 0,0 km/h (0 Bft)
17.04.2010 22:24 18,2 C 10,5 C 0,0 UV-I 0,0 C 40 % 57 % 0 % 1018,4 hPa 0,0 l/m 0,0 km/h (0 Bft) 0 min 0,0 km/h (0 Bft)
17.04.2010 22:26 18,1 C 10,4 C 0,0 UV-I 0,0 C 40 % 58 % 0 % 1018,4 hPa 0,0 l/m 0,0 km/h (0 Bft) 0 min 0,0 km/h (0 Bft)
17.04.2010 22:28 18,1 C 10,5 C 0,0 UV-I 0,0 C 40 % 57 % 0 % 1018,4 hPa 0,0 l/m 0,0 km/h (0 Bft) 0 min 0,0 km/h (0 Bft)
17.04.2010 22:30 18,1 C 10,3 C 0,0 UV-I 0,0 C 40 % 57 % 0 % 1018,4 hPa 0,0 l/m 0,0 km/h (0 Bft) 0 min 0,0 km/h (0 Bft)
17.04.2010 22:32 18,1 C 10,2 C 0,0 UV-I 0,0 C 40 % 58 % 0 % 1018,0 hPa 0,0 l/m 0,0 km/h (0 Bft) 0 min 0,0 km/h (0 Bft)
17.04.2010 22:34 18,1 C 10,2 C 0,0 UV-I 0,0 C 40 % 60 % 0 % 1018,0 hPa 0,0 l/m 0,0 km/h (0 Bft) 0 min 0,0 km/h (0 Bft)
17.04.2010 22:36 18,0 C 10,1 C 0,0 UV-I 0,0 C 40 % 60 % 0 % 1018,0 hPa 0,0 l/m 0,0 km/h (0 Bft) 0 min 0,0 km/h (0 Bft)
17.04.2010 22:38 18,0 C 10,0 C 0,0 UV-I 0,0 C 40 % 59 % 0 % 1018,0 hPa 0,0 l/m 0,0 km/h (0 Bft) 0 min 0,0 km/h (0 Bft)
17.04.2010 22:40 18,0 C 10,0 C 0,0 UV-I 0,0 C 40 % 59 % 0 % 1018,0 hPa 0,0 l/m 0,0 km/h (0 Bft) 0 min 0,0 km/h (0 Bft)
17.04.2010 22:42 18,0 C 9,9 C 0,0 UV-I 0,0 C 40 % 59 % 0 % 1018,0 hPa 0,0 l/m 0,0 km/h (0 Bft) 0 min 0,0 km/h (0 Bft)
17.04.2010 22:44 18,0 C 9,8 C 0,0 UV-I 0,0 C 40 % 60 % 0 % 1018,0 hPa 0,0 l/m 0,0 km/h (0 Bft) 0 min 0,0 km/h (0 Bft)
17.04.2010 22:46 18,0 C 9,9 C 0,0 UV-I 0,0 C 40 % 60 % 0 % 1018,0 hPa 0,0 l/m 0,0 km/h (0 Bft) 0 min 0,0 km/h (0 Bft)
17.04.2010 22:48 18,0 C 9,7 C 0,0 UV-I 0,0 C 40 % 60 % 0 % 1018,0 hPa 0,0 l/m 0,0 km/h (0 Bft) 0 min 0,0 km/h (0 Bft)
17.04.2010 22:50 18,0 C 9,6 C 0,0 UV-I 0,0 C 40 % 60 % 0 % 1018,0 hPa 0,0 l/m 0,0 km/h (0 Bft) 0 min 0,0 km/h (0 Bft)
17.04.2010 22:52 18,0 C 9,6 C 0,0 UV-I 0,0 C 40 % 60 % 0 % 1017,9 hPa 0,0 l/m 0,0 km/h (0 Bft) 0 min 0,0 km/h (0 Bft)
17.04.2010 22:54 18,0 C 9,5 C 0,0 UV-I 0,0 C 40 % 60 % 0 % 1017,9 hPa 0,0 l/m 0,0 km/h (0 Bft) 0 min 0,0 km/h (0 Bft)
17.04.2010 22:56 17,9 C 9,5 C 0,0 UV-I 0,0 C 40 % 60 % 0 % 1017,9 hPa 0,0 l/m 0,0 km/h (0 Bft) 0 min 0,0 km/h (0 Bft)
17.04.2010 22:58 17,9 C 9,5 C 0,0 UV-I 0,0 C 40 % 61 % 0 % 1017,9 hPa 0,0 l/m 0,0 km/h (0 Bft) 0 min 0,0 km/h (0 Bft)
17.04.2010 23:00 17,9 C 9,3 C 0,0 UV-I 0,0 C 40 % 62 % 0 % 1017,9 hPa 0,0 l/m 0,0 km/h (0 Bft) 0 min 0,0 km/h (0 Bft)
17.04.2010 23:02 17,8 C 9,2 C 0,0 UV-I 0,0 C 40 % 63 % 0 % 1017,9 hPa 0,0 l/m 0,0 km/h (0 Bft) 0 min 0,0 km/h (0 Bft)
17.04.2010 23:04 17,8 C 9,2 C 0,0 UV-I 0,0 C 41 % 63 % 0 % 1017,9 hPa 0,0 l/m 0,0 km/h (0 Bft) 0 min 0,0 km/h (0 Bft)
17.04.2010 23:06 17,8 C 9,2 C 0,0 UV-I 0,0 C 40 % 63 % 0 % 1017,9 hPa 0,0 l/m 0,0 km/h (0 Bft) 0 min 0,0 km/h (0 Bft)
17.04.2010 23:08 17,8 C 9,2 C 0,0 UV-I 0,0 C 41 % 64 % 0 % 1017,9 hPa 0,0 l/m 0,0 km/h (0 Bft) 0 min 0,0 km/h (0 Bft)
17.04.2010 23:10 17,8 C 9,1 C 0,0 UV-I 0,0 C 41 % 64 % 0 % 1017,9 hPa 0,0 l/m 0,0 km/h (0 Bft) 0 min 0,0 km/h (0 Bft)
17.04.2010 23:12 17,8 C 9,0 C 0,0 UV-I 0,0 C 41 % 64 % 0 % 1018,0 hPa 0,0 l/m 0,0 km/h (0 Bft) 0 min 0,0 km/h (0 Bft)
17.04.2010 23:14 17,7 C 9,0 C 0,0 UV-I 0,0 C 41 % 64 % 0 % 1018,0 hPa 0,0 l/m 0,0 km/h (0 Bft) 0 min 0,0 km/h (0 Bft)
17.04.2010 23:18 17,7 C 8,8 C 0,0 UV-I 0,0 C 41 % 65 % 0 % 1018,0 hPa 0,0 l/m 0,0 km/h (0 Bft) 0 min 0,0 km/h (0 Bft)
17.04.2010 23:20 17,7 C 8,9 C 0,0 UV-I 0,0 C 41 % 65 % 0 % 1018,0 hPa 0,0 l/m 0,0 km/h (0 Bft) 0 min 0,0 km/h (0 Bft)
17.04.2010 23:22 17,7 C 8,8 C 0,0 UV-I 0,0 C 41 % 66 % 0 % 1018,0 hPa 0,0 l/m 0,0 km/h (0 Bft) 0 min 0,0 km/h (0 Bft)
17.04.2010 23:24 17,6 C 8,7 C 0,0 UV-I 0,0 C 41 % 66 % 0 % 1018,0 hPa 0,0 l/m 0,0 km/h (0 Bft) 0 min 0,0 km/h (0 Bft)
17.04.2010 23:26 17,6 C 8,6 C 0,0 UV-I 0,0 C 41 % 66 % 0 % 1018,0 hPa 0,0 l/m 0,0 km/h (0 Bft) 0 min 0,0 km/h (0 Bft)
17.04.2010 23:28 17,6 C 8,7 C 0,0 UV-I 0,0 C 41 % 67 % 0 % 1018,0 hPa 0,0 l/m 0,0 km/h (0 Bft) 0 min 0,0 km/h (0 Bft)
17.04.2010 23:30 17,6 C 8,5 C 0,0 UV-I 0,0 C 41 % 67 % 0 % 1018,0 hPa 0,0 l/m 0,0 km/h (0 Bft) 0 min 0,0 km/h (0 Bft)
17.04.2010 23:32 17,6 C 8,4 C 0,0 UV-I 0,0 C 41 % 67 % 0 % 1017,6 hPa 0,0 l/m 0,0 km/h (0 Bft) 0 min 0,0 km/h (0 Bft)
17.04.2010 23:34 17,6 C 8,5 C 0,0 UV-I 0,0 C 41 % 67 % 0 % 1017,6 hPa 0,0 l/m 0,0 km/h (0 Bft) 0 min 0,0 km/h (0 Bft)
17.04.2010 23:36 17,6 C 8,4 C 0,0 UV-I 0,0 C 41 % 67 % 0 % 1017,6 hPa 0,0 l/m 0,0 km/h (0 Bft) 0 min 0,0 km/h (0 Bft)
17.04.2010 23:40 17,5 C 8,3 C 0,0 UV-I 0,0 C 41 % 68 % 0 % 1017,6 hPa 0,0 l/m 0,0 km/h (0 Bft) 0 min 0,0 km/h (0 Bft)
17.04.2010 23:42 17,5 C 8,3 C 0,0 UV-I 0,0 C 41 % 68 % 0 % 1017,6 hPa 0,0 l/m 0,0 km/h (0 Bft) 0 min 0,0 km/h (0 Bft)
17.04.2010 23:44 17,5 C 8,2 C 0,0 UV-I 0,0 C 41 % 68 % 0 % 1017,6 hPa 0,0 l/m 0,0 km/h (0 Bft) 0 min 0,0 km/h (0 Bft)
17.04.2010 23:48 17,4 C 8,0 C 0,0 UV-I 0,0 C 41 % 67 % 0 % 1017,6 hPa 0,0 l/m 0,0 km/h (0 Bft) 0 min 0,0 km/h (0 Bft)
17.04.2010 23:50 17,4 C 8,0 C 0,0 UV-I 0,0 C 41 % 67 % 0 % 1017,6 hPa 0,0 l/m 0,0 km/h (0 Bft) 0 min 0,0 km/h (0 Bft)
17.04.2010 23:52 17,4 C 7,9 C 0,0 UV-I 0,0 C 41 % 67 % 0 % 1017,4 hPa 0,0 l/m 0,0 km/h (0 Bft) 0 min 0,0 km/h (0 Bft)
17.04.2010 23:54 17,4 C 7,9 C 0,0 UV-I 0,0 C 42 % 67 % 0 % 1017,4 hPa 0,0 l/m 0,0 km/h (0 Bft) 0 min 0,0 km/h (0 Bft)
17.04.2010 23:58 17,4 C 7,8 C 0,0 UV-I 0,0 C 42 % 68 % 0 % 1017,4 hPa 0,0 l/m 0,0 km/h (0 Bft) 0 min 0,0 km/h (0 Bft)
_ Min-Zeit 08:10 06:50 00:00 00:00 16:46 18:06 00:00 23:52 - 00:18 - 00:00
Minimum _ 14,6 C 0,4 C 0,0 UV-I 0,0 C 32 % 26 % 0 % 1017,4 hPa - 0,0 km/h (0 Bft) - 0,0 km/h (0 Bft)
_ Max-Zeit 17:02 17:30 16:10 10:28 01:14 08:44 09:50 14:32 00:00 16:32 09:50 13:20
Maximum _ 22,4 C 21,7 C 14,3 UV-I 11,5 C 46 % 90 % 100 % 1025,8 hPa 0,0 l/m 7,2 km/h
N-NO (2 Bft)
2 min 20,1 km/h
NO (4 Bft)
Durchschnitt _ 17,1 C 9,8 C 3,0 UV-I 2,5 C 42 % 60 % 38 % 1022,9 hPa #0,0 l/m 1,1 km/h (0 Bft) #7:59 h 1,6 km/h (1 Bft)
© 2012 W. Hausmann